Observation data for Odell on 05/26/2019      Previous  Date  Next       Current Mesonet Observations  Soil Data  Daily Summary Page  Observations in Plain Language
KOD1 260500Z 12012KT 24/22 A2995 RMK A01 T02410215  RH  085%=      5-min Rain = 0
KOD1 260501Z 12010KT 24/22 A2995 RMK A01 T02410215  RH  085%=      5-min Rain = 0
KOD1 260502Z 12010KT 24/21 A2995 RMK A01 T02400214  RH  085%=      5-min Rain = 0
KOD1 260503Z 12011KT 24/21 A2995 RMK A01 T02400214  RH  086%=      5-min Rain = 0
KOD1 260504Z 12011KT 24/22 A2995 RMK A01 T02400215  RH  086%=      5-min Rain = 0
KOD1 260505Z 12011KT 24/21 A2995 RMK A01 T02400214  RH  086%=      5-min Rain = 0
KOD1 260506Z 12011KT 24/21 A2995 RMK A01 T02400214  RH  086%=      5-min Rain = 0
KOD1 260507Z 12010KT 24/21 A2995 RMK A01 T02390214  RH  086%=      5-min Rain = 0
KOD1 260508Z 12010KT 24/21 A2995 RMK A01 T02390214  RH  086%=      5-min Rain = 0
KOD1 260509Z 12011KT 24/21 A2995 RMK A01 T02400214  RH  086%=      5-min Rain = 0
KOD1 260510Z 12011KT 24/21 A2995 RMK A01 T02390214  RH  086%=      5-min Rain = 0
KOD1 260511Z 12011KT 24/21 A2995 RMK A01 T02400214  RH  085%=      5-min Rain = 0
KOD1 260512Z 12010KT 24/21 A2995 RMK A01 T02400214  RH  085%=      5-min Rain = 0
KOD1 260513Z 12011KT 24/21 A2995 RMK A01 T02390214  RH  086%=      5-min Rain = 0
KOD1 260514Z 12011KT 24/21 A2995 RMK A01 T02400213  RH  085%=      5-min Rain = 0
KOD1 260515Z 12010KT 24/21 A2995 RMK A01 T02400213  RH  085%=      5-min Rain = 0
KOD1 260516Z 13010KT 24/21 A2995 RMK A01 T02400214  RH  085%=      5-min Rain = 0
KOD1 260517Z 13010KT 24/21 A2995 RMK A01 T02390213  RH  086%=      5-min Rain = 0
KOD1 260518Z 13010KT 24/21 A2995 RMK A01 T02390213  RH  086%=      5-min Rain = 0
KOD1 260519Z 13010KT 24/21 A2995 RMK A01 T02390213  RH  085%=      5-min Rain = 0
KOD1 260520Z 12009KT 24/21 A2995 RMK A01 T02390213  RH  085%=      5-min Rain = 0
KOD1 260521Z 13009KT 24/21 A2995 RMK A01 T02390213  RH  085%=      5-min Rain = 0
KOD1 260522Z 13010KT 24/21 A2995 RMK A01 T02390213  RH  085%=      5-min Rain = 0
KOD1 260523Z 13009KT 24/21 A2995 RMK A01 T02390213  RH  085%=      5-min Rain = 0
KOD1 260524Z 13009KT 24/21 A2995 RMK A01 T02390213  RH  085%=      5-min Rain = 0
KOD1 260525Z 13009KT 24/21 A2995 RMK A01 T02390213  RH  085%=      5-min Rain = 0
KOD1 260526Z 13009KT 24/21 A2995 RMK A01 T02390213  RH  085%=      5-min Rain = 0
KOD1 260527Z 12009KT 24/21 A2995 RMK A01 T02390213  RH  085%=      5-min Rain = 0
KOD1 260528Z 13010G16KT 24/21 A2995 RMK A01 T02390212  RH  085%=      5-min Rain = 0
KOD1 260529Z 13011KT 24/21 A2995 RMK A01 T02400213  RH  085%=      5-min Rain = 0
KOD1 260530Z 13012KT 24/21 A2995 RMK A01 T02400212  RH  084%=      5-min Rain = 0
KOD1 260531Z 14012KT 24/21 A2995 RMK A01 T02410212  RH  084%=      5-min Rain = 0
KOD1 260532Z 13011KT 24/21 A2995 RMK A01 T02410212  RH  084%=      5-min Rain = 0
KOD1 260533Z 13011KT 24/21 A2995 RMK A01 T02410212  RH  084%=      5-min Rain = 0
KOD1 260534Z 13011KT 24/21 A2995 RMK A01 T02410212  RH  084%=      5-min Rain = 0
KOD1 260535Z 14012KT 24/21 A2995 RMK A01 T02410212  RH  084%=      5-min Rain = 0
KOD1 260536Z 13013KT 24/21 A2995 RMK A01 T02410211  RH  083%=      5-min Rain = 0
KOD1 260537Z 14011KT 24/21 A2995 RMK A01 T02410211  RH  083%=      5-min Rain = 0
KOD1 260538Z 13011KT 24/21 A2995 RMK A01 T02410211  RH  084%=      5-min Rain = 0
KOD1 260539Z 13011KT 24/21 A2995 RMK A01 T02410211  RH  084%=      5-min Rain = 0
KOD1 260540Z 13010KT 24/21 A2995 RMK A01 T02410211  RH  083%=      5-min Rain = 0
KOD1 260541Z 14012KT 24/21 A2995 RMK A01 T02410211  RH  084%=      5-min Rain = 0
KOD1 260542Z 13012KT 24/21 A2995 RMK A01 T02410211  RH  083%=      5-min Rain = 0
KOD1 260543Z 13011KT 24/21 A2996 RMK A01 T02410211  RH  083%=      5-min Rain = 0
KOD1 260544Z 13010KT 24/21 A2996 RMK A01 T02410211  RH  083%=      5-min Rain = 0
KOD1 260545Z 13011KT 24/21 A2996 RMK A01 T02410211  RH  083%=      5-min Rain = 0
KOD1 260546Z 13011KT 24/21 A2996 RMK A01 T02410211  RH  083%=      5-min Rain = 0
KOD1 260547Z 13010KT 24/21 A2996 RMK A01 T02410211  RH  083%=      5-min Rain = 0
KOD1 260548Z 14011KT 24/21 A2996 RMK A01 T02410211  RH  083%=      5-min Rain = 0
KOD1 260549Z 14012KT 24/21 A2996 RMK A01 T02420211  RH  083%=      5-min Rain = 0
KOD1 260550Z 13012KT 24/21 A2996 RMK A01 T02410210  RH  083%=      5-min Rain = 0
KOD1 260551Z 14012KT 24/21 A2996 RMK A01 T02420210  RH  082%=      5-min Rain = 0
KOD1 260552Z 13013KT 24/21 A2996 RMK A01 T02420210  RH  082%=      5-min Rain = 0
KOD1 260553Z 13011KT 24/21 A2995 RMK A01 T02430210  RH  082%=      5-min Rain = 0
KOD1 260554Z 14010KT 24/21 A2995 RMK A01 T02420210  RH  082%=      5-min Rain = 0
KOD1 260555Z 13013KT 24/21 A2995 RMK A01 T02420210  RH  082%=      5-min Rain = 0
KOD1 260556Z 14013KT 24/21 A2996 RMK A01 T02430210  RH  082%=      5-min Rain = 0
KOD1 260557Z 14013KT 24/21 A2996 RMK A01 T02430210  RH  082%=      5-min Rain = 0
KOD1 260558Z 13013G18KT 24/21 A2996 RMK A01 T02430210  RH  082%=      5-min Rain = 0
KOD1 260559Z 14012KT 24/21 A2996 RMK A01 T02430210  RH  082%=      5-min Rain = 0
KOD1 260600Z 14013KT 24/21 A2996 RMK A01 T02430210  RH  082%=      5-min Rain = 0
KOD1 260601Z 14012G17KT 24/21 A2995 RMK A01 T02420210  RH  082%=      5-min Rain = 0
KOD1 260602Z 13014KT 24/21 A2995 RMK A01 T02430209  RH  082%=      5-min Rain = 0
KOD1 260603Z 13014KT 24/21 A2995 RMK A01 T02430209  RH  082%=      5-min Rain = 0
KOD1 260604Z 14012G17KT 24/21 A2995 RMK A01 T02430209  RH  081%=      5-min Rain = 0
KOD1 260605Z 14010KT 24/21 A2995 RMK A01 T02430210  RH  082%=      5-min Rain = 0
KOD1 260606Z 14012KT 24/21 A2995 RMK A01 T02420210  RH  082%=      5-min Rain = 0
KOD1 260607Z 14015KT 24/21 A2995 RMK A01 T02420209  RH  082%=      5-min Rain = 0
KOD1 260608Z 14014KT 24/21 A2995 RMK A01 T02430209  RH  081%=      5-min Rain = 0
KOD1 260609Z 14014KT 24/21 A2995 RMK A01 T02430209  RH  081%=      5-min Rain = 0
KOD1 260610Z 14014G19KT 24/21 A2995 RMK A01 T02430209  RH  081%=      5-min Rain = 0
KOD1 260611Z 14014G19KT 24/21 A2995 RMK A01 T02430209  RH  082%=      5-min Rain = 0
KOD1 260612Z 14011KT 24/21 A2995 RMK A01 T02430209  RH  082%=      5-min Rain = 0
KOD1 260613Z 13014KT 24/21 A2995 RMK A01 T02420209  RH  082%=      5-min Rain = 0
KOD1 260614Z 13014KT 24/21 A2995 RMK A01 T02420209  RH  082%=      5-min Rain = 0
KOD1 260615Z 14015KT 24/21 A2995 RMK A01 T02420209  RH  081%=      5-min Rain = 0
KOD1 260616Z 14014KT 24/21 A2995 RMK A01 T02430209  RH  081%=      5-min Rain = 0
KOD1 260617Z 14014KT 24/21 A2995 RMK A01 T02430209  RH  081%=      5-min Rain = 0
KOD1 260618Z 14014KT 24/21 A2995 RMK A01 T02420208  RH  081%=      5-min Rain = 0
KOD1 260619Z 14013KT 24/21 A2995 RMK A01 T02420208  RH  081%=      5-min Rain = 0
KOD1 260620Z 13013KT 24/21 A2995 RMK A01 T02420208  RH  081%=      5-min Rain = 0
KOD1 260621Z 14013KT 24/21 A2995 RMK A01 T02420209  RH  082%=      5-min Rain = 0
KOD1 260622Z 13013KT 24/21 A2995 RMK A01 T02410209  RH  082%=      5-min Rain = 0
KOD1 260623Z 14014KT 24/21 A2995 RMK A01 T02410208  RH  082%=      5-min Rain = 0
KOD1 260624Z 13013KT 24/21 A2995 RMK A01 T02410208  RH  082%=      5-min Rain = 0
KOD1 260625Z 14014KT 24/21 A2995 RMK A01 T02410208  RH  082%=      5-min Rain = 0
KOD1 260626Z 14014KT 24/21 A2995 RMK A01 T02410208  RH  082%=      5-min Rain = 0
KOD1 260627Z 13013KT 24/21 A2995 RMK A01 T02410208  RH  082%=      5-min Rain = 0
KOD1 260628Z 13012KT 24/21 A2995 RMK A01 T02400208  RH  082%=      5-min Rain = 0
KOD1 260629Z 13013KT 24/21 A2995 RMK A01 T02400208  RH  082%=      5-min Rain = 0
KOD1 260630Z 14013G18KT 24/21 A2995 RMK A01 T02400208  RH  083%=      5-min Rain = 0
KOD1 260631Z 13011KT 24/21 A2995 RMK A01 T02390208  RH  083%=      5-min Rain = 0
KOD1 260632Z 14012KT 24/21 A2995 RMK A01 T02390208  RH  083%=      5-min Rain = 0
KOD1 260633Z 13015KT 24/21 A2995 RMK A01 T02390208  RH  083%=      5-min Rain = 0
KOD1 260634Z 13013G18KT 24/21 A2995 RMK A01 T02400208  RH  082%=      5-min Rain = 0
KOD1 260635Z 13014KT 24/21 A2995 RMK A01 T02400207  RH  082%=      5-min Rain = 0
KOD1 260636Z 13011KT 24/21 A2995 RMK A01 T02400208  RH  082%=      5-min Rain = 0
KOD1 260637Z 14013KT 24/21 A2995 RMK A01 T02390208  RH  083%=      5-min Rain = 0
KOD1 260638Z 13012KT 24/21 A2995 RMK A01 T02390207  RH  083%=      5-min Rain = 0
KOD1 260639Z 13012KT 24/21 A2995 RMK A01 T02390208  RH  083%=      5-min Rain = 0
KOD1 260640Z 14012KT 24/21 A2995 RMK A01 T02390208  RH  083%=      5-min Rain = 0
KOD1 260641Z 13013KT 24/21 A2995 RMK A01 T02390207  RH  083%=      5-min Rain = 0
KOD1 260642Z 13012KT 24/21 A2995 RMK A01 T02390208  RH  083%=      5-min Rain = 0
KOD1 260643Z 14012KT 24/21 A2995 RMK A01 T02390207  RH  082%=      5-min Rain = 0
KOD1 260644Z 14013KT 24/21 A2995 RMK A01 T02390207  RH  083%=      5-min Rain = 0
KOD1 260645Z 14013KT 24/21 A2995 RMK A01 T02390207  RH  083%=      5-min Rain = 0
KOD1 260646Z 14014KT 24/21 A2995 RMK A01 T02380207  RH  083%=      5-min Rain = 0
KOD1 260647Z 13011KT 24/21 A2995 RMK A01 T02380207  RH  083%=      5-min Rain = 0
KOD1 260648Z 13013KT 24/21 A2995 RMK A01 T02380207  RH  083%=      5-min Rain = 0
KOD1 260649Z 14014KT 24/21 A2995 RMK A01 T02380207  RH  083%=      5-min Rain = 0
KOD1 260650Z 14012G17KT 24/21 A2995 RMK A01 T02370207  RH  083%=      5-min Rain = 0
KOD1 260651Z 13014KT 24/21 A2995 RMK A01 T02370207  RH  083%=      5-min Rain = 0
KOD1 260652Z 14015KT 24/21 A2995 RMK A01 T02380206  RH  083%=      5-min Rain = 0
KOD1 260653Z 13012KT 24/21 A2995 RMK A01 T02380207  RH  083%=      5-min Rain = 0
KOD1 260654Z 13013KT 24/21 A2995 RMK A01 T02370207  RH  083%=      5-min Rain = 0
KOD1 260655Z 14013KT 24/21 A2995 RMK A01 T02370207  RH  083%=      5-min Rain = 0
KOD1 260656Z 13012KT 24/21 A2995 RMK A01 T02370207  RH  083%=      5-min Rain = 0
KOD1 260657Z 13013KT 24/21 A2995 RMK A01 T02370206  RH  083%=      5-min Rain = 0
KOD1 260658Z 14011KT 24/21 A2995 RMK A01 T02370206  RH  083%=      5-min Rain = 0
KOD1 260659Z 13013KT 24/21 A2995 RMK A01 T02360206  RH  083%=      5-min Rain = 0
KOD1 260700Z 13012KT 24/21 A2995 RMK A01 T02360206  RH  083%=      5-min Rain = 0
KOD1 260701Z 13012KT 24/21 A2995 RMK A01 T02360206  RH  083%=      5-min Rain = 0
KOD1 260702Z 13012G18KT 24/21 A2995 RMK A01 T02360206  RH  084%=      5-min Rain = 0
KOD1 260703Z 14014KT 24/21 A2995 RMK A01 T02360206  RH  084%=      5-min Rain = 0
KOD1 260704Z 14014KT 24/21 A2995 RMK A01 T02370206  RH  083%=      5-min Rain = 0
KOD1 260705Z 13013KT 24/21 A2995 RMK A01 T02370206  RH  083%=      5-min Rain = 0
KOD1 260706Z 13012KT 24/21 A2995 RMK A01 T02360206  RH  083%=      5-min Rain = 0
KOD1 260707Z 14014KT 24/21 A2995 RMK A01 T02360206  RH  083%=      5-min Rain = 0
KOD1 260708Z 13013KT 24/21 A2995 RMK A01 T02360206  RH  083%=      5-min Rain = 0
KOD1 260709Z 13012KT 24/21 A2995 RMK A01 T02360206  RH  083%=      5-min Rain = 0
KOD1 260710Z 14013KT 24/21 A2995 RMK A01 T02360206  RH  084%=      5-min Rain = 0
KOD1 260711Z 13014KT 24/21 A2995 RMK A01 T02360206  RH  084%=      5-min Rain = 0
KOD1 260712Z 13015KT 24/21 A2995 RMK A01 T02360205  RH  083%=      5-min Rain = 0
KOD1 260713Z 14013KT 24/21 A2995 RMK A01 T02360206  RH  083%=      5-min Rain = 0
KOD1 260714Z 14013KT 24/21 A2995 RMK A01 T02360206  RH  083%=      5-min Rain = 0
KOD1 260715Z 14013KT 24/21 A2995 RMK A01 T02360206  RH  083%=      5-min Rain = 0
KOD1 260716Z 13013KT 24/21 A2995 RMK A01 T02360206  RH  083%=      5-min Rain = 0
KOD1 260717Z 14013KT 24/21 A2995 RMK A01 T02350205  RH  084%=      5-min Rain = 0
KOD1 260718Z 14014KT 24/21 A2995 RMK A01 T02350205  RH  083%=      5-min Rain = 0
KOD1 260719Z 13012KT 24/21 A2995 RMK A01 T02350205  RH  083%=      5-min Rain = 0
KOD1 260720Z 14015KT 24/21 A2995 RMK A01 T02350205  RH  083%=      5-min Rain = 0
KOD1 260721Z 13013KT 24/21 A2995 RMK A01 T02350205  RH  083%=      5-min Rain = 0
KOD1 260722Z 13013KT 24/21 A2995 RMK A01 T02350205  RH  083%=      5-min Rain = 0
KOD1 260723Z 13011KT 24/21 A2995 RMK A01 T02350205  RH  084%=      5-min Rain = 0
KOD1 260724Z 13012KT 23/21 A2995 RMK A01 T02340205  RH  084%=      5-min Rain = 0
KOD1 260725Z 14013KT 23/21 A2995 RMK A01 T02340205  RH  084%=      5-min Rain = 0
KOD1 260726Z 13012KT 23/21 A2995 RMK A01 T02340205  RH  084%=      5-min Rain = 0
KOD1 260727Z 14013KT 23/21 A2995 RMK A01 T02340205  RH  084%=      5-min Rain = 0
KOD1 260728Z 14012KT 23/21 A2995 RMK A01 T02340205  RH  084%=      5-min Rain = 0
KOD1 260729Z 14014KT 23/21 A2995 RMK A01 T02340205  RH  084%=      5-min Rain = 0
KOD1 260730Z 14012KT 23/21 A2995 RMK A01 T02340205  RH  084%=      5-min Rain = 0
KOD1 260731Z 14011KT 23/21 A2995 RMK A01 T02330205  RH  084%=      5-min Rain = 0
KOD1 260732Z 14012KT 23/21 A2995 RMK A01 T02330205  RH  084%=      5-min Rain = 0
KOD1 260733Z 14014KT 23/21 A2995 RMK A01 T02330205  RH  084%=      5-min Rain = 0
KOD1 260734Z 14012KT 23/20 A2995 RMK A01 T02330204  RH  084%=      5-min Rain = 0
KOD1 260735Z 13013KT 23/21 A2995 RMK A01 T02330205  RH  084%=      5-min Rain = 0
KOD1 260736Z 13012KT 23/20 A2995 RMK A01 T02330204  RH  084%=      5-min Rain = 0
KOD1 260737Z 14012KT 23/20 A2995 RMK A01 T02330204  RH  084%=      5-min Rain = 0
KOD1 260738Z 14013KT 23/20 A2995 RMK A01 T02330204  RH  084%=      5-min Rain = 0
KOD1 260739Z 14011KT 23/20 A2995 RMK A01 T02330204  RH  084%=      5-min Rain = 0
KOD1 260740Z 14012KT 23/20 A2995 RMK A01 T02330204  RH  084%=      5-min Rain = 0
KOD1 260741Z 14012KT 23/20 A2995 RMK A01 T02320204  RH  084%=      5-min Rain = 0
KOD1 260742Z 14012KT 23/20 A2995 RMK A01 T02320204  RH  084%=      5-min Rain = 0
KOD1 260743Z 14014KT 23/20 A2995 RMK A01 T02320204  RH  084%=      5-min Rain = 0
KOD1 260744Z 14013KT 23/20 A2995 RMK A01 T02330204  RH  084%=      5-min Rain = 0
KOD1 260745Z 14012KT 23/20 A2995 RMK A01 T02330204  RH  084%=      5-min Rain = 0
KOD1 260746Z 14012KT 23/20 A2995 RMK A01 T02330204  RH  084%=      5-min Rain = 0
KOD1 260747Z 14014KT 23/20 A2995 RMK A01 T02320204  RH  084%=      5-min Rain = 0
KOD1 260748Z 14013KT 23/20 A2995 RMK A01 T02330204  RH  084%=      5-min Rain = 0
KOD1 260749Z 14016KT 23/20 A2995 RMK A01 T02330204  RH  084%=      5-min Rain = 0
KOD1 260750Z 14013KT 23/20 A2995 RMK A01 T02330204  RH  083%=      5-min Rain = 0
KOD1 260751Z 14014KT 23/20 A2995 RMK A01 T02330204  RH  084%=      5-min Rain = 0
KOD1 260752Z 14014KT 23/20 A2995 RMK A01 T02330204  RH  083%=      5-min Rain = 0
KOD1 260753Z 14016KT 23/20 A2995 RMK A01 T02330204  RH  084%=      5-min Rain = 0
KOD1 260754Z 14013KT 23/20 A2995 RMK A01 T02340204  RH  083%=      5-min Rain = 0
KOD1 260755Z 14016KT 23/20 A2995 RMK A01 T02330204  RH  084%=      5-min Rain = 0
KOD1 260756Z 14014KT 23/20 A2995 RMK A01 T02330204  RH  084%=      5-min Rain = 0
KOD1 260757Z 15016KT 23/20 A2995 RMK A01 T02330203  RH  083%=      5-min Rain = 0
KOD1 260758Z 15016KT 23/20 A2995 RMK A01 T02340203  RH  083%=      5-min Rain = 0
KOD1 260759Z 14015KT 23/20 A2995 RMK A01 T02340204  RH  083%=      5-min Rain = 0
KOD1 260800Z 14012KT 23/20 A2995 RMK A01 T02340204  RH  083%=      5-min Rain = 0
KOD1 260801Z 14015KT 23/20 A2995 RMK A01 T02330203  RH  083%=      5-min Rain = 0
KOD1 260802Z 14014KT 23/20 A2995 RMK A01 T02330203  RH  083%=      5-min Rain = 0
KOD1 260803Z 14013KT 23/20 A2995 RMK A01 T02330204  RH  084%=      5-min Rain = 0
KOD1 260804Z 14012KT 23/20 A2995 RMK A01 T02320204  RH  084%=      5-min Rain = 0
KOD1 260805Z 14013KT 23/20 A2995 RMK A01 T02320204  RH  084%=      5-min Rain = 0
KOD1 260806Z 14013KT 23/20 A2995 RMK A01 T02310204  RH  084%=      5-min Rain = 0
KOD1 260807Z 14014KT 23/20 A2995 RMK A01 T02310204  RH  085%=      5-min Rain = 0
KOD1 260808Z 15014G19KT 23/20 A2995 RMK A01 T02310203  RH  084%=      5-min Rain = 0
KOD1 260809Z 15016KT 23/20 A2995 RMK A01 T02320203  RH  084%=      5-min Rain = 0
KOD1 260810Z 15016G21KT 23/20 A2994 RMK A01 T02330203  RH  084%=      5-min Rain = 0
KOD1 260811Z 15016KT 23/20 A2994 RMK A01 T02330203  RH  083%=      5-min Rain = 0
KOD1 260812Z 14016KT 23/20 A2994 RMK A01 T02330203  RH  083%=      5-min Rain = 0
KOD1 260813Z 15016KT 23/20 A2994 RMK A01 T02330203  RH  083%=      5-min Rain = 0
KOD1 260814Z 15017KT 23/20 A2994 RMK A01 T02330203  RH  083%=      5-min Rain = 0
KOD1 260815Z 15017KT 23/20 A2995 RMK A01 T02330203  RH  083%=      5-min Rain = 0
KOD1 260816Z 15016KT 23/20 A2995 RMK A01 T02330203  RH  083%=      5-min Rain = 0
KOD1 260817Z 15015KT 23/20 A2995 RMK A01 T02320204  RH  084%=      5-min Rain = 0
KOD1 260818Z 15016KT 23/20 A2995 RMK A01 T02320203  RH  084%=      5-min Rain = 0
KOD1 260819Z 15016G21KT 23/20 A2995 RMK A01 T02320204  RH  084%=      5-min Rain = 0
KOD1 260820Z 15019KT 23/20 A2995 RMK A01 T02320203  RH  084%=      5-min Rain = 0
KOD1 260821Z 15017KT 23/20 A2995 RMK A01 T02330203  RH  083%=      5-min Rain = 0
KOD1 260822Z 15016KT 23/20 A2995 RMK A01 T02320203  RH  083%=      5-min Rain = 0
KOD1 260823Z 15014KT 23/20 A2995 RMK A01 T02320203  RH  084%=      5-min Rain = 0
KOD1 260824Z 14017KT 23/20 A2995 RMK A01 T02310203  RH  084%=      5-min Rain = 0
KOD1 260825Z 15015KT 23/20 A2995 RMK A01 T02320203  RH  084%=      5-min Rain = 0
KOD1 260826Z 15016KT 23/20 A2995 RMK A01 T02310203  RH  084%=      5-min Rain = 0
KOD1 260827Z 15014G19KT 23/20 A2995 RMK A01 T02310203  RH  084%=      5-min Rain = 0
KOD1 260828Z 15016KT 23/20 A2995 RMK A01 T02300203  RH  084%=      5-min Rain = 0
KOD1 260829Z 15015KT 23/20 A2995 RMK A01 T02300202  RH  084%=      5-min Rain = 0
KOD1 260830Z 15014KT 23/20 A2995 RMK A01 T02300203  RH  084%=      5-min Rain = 0
KOD1 260831Z 15016KT 23/20 A2995 RMK A01 T02300203  RH  085%=      5-min Rain = 0
KOD1 260832Z 15016KT 23/20 A2995 RMK A01 T02300202  RH  084%=      5-min Rain = 0
KOD1 260833Z 15016KT 23/20 A2995 RMK A01 T02300202  RH  084%=      5-min Rain = 0
KOD1 260834Z 15016KT 23/20 A2995 RMK A01 T02300202  RH  084%=      5-min Rain = 0
KOD1 260835Z 15015KT 23/20 A2995 RMK A01 T02300202  RH  084%=      5-min Rain = 0
KOD1 260836Z 15014KT 23/20 A2995 RMK A01 T02300202  RH  084%=      5-min Rain = 0
KOD1 260837Z 15014KT 23/20 A2995 RMK A01 T02300202  RH  084%=      5-min Rain = 0
KOD1 260838Z 15016KT 23/20 A2995 RMK A01 T02290202  RH  085%=      5-min Rain = 0
KOD1 260839Z 15016KT 23/20 A2995 RMK A01 T02290202  RH  084%=      5-min Rain = 0
KOD1 260840Z 14014KT 23/20 A2995 RMK A01 T02290201  RH  084%=      5-min Rain = 0
KOD1 260841Z 15014KT 23/20 A2995 RMK A01 T02300202  RH  084%=      5-min Rain = 0
KOD1 260842Z 14016G21KT 23/20 A2995 RMK A01 T02300201  RH  084%=      5-min Rain = 0
KOD1 260843Z 14016KT 23/20 A2995 RMK A01 T02300201  RH  084%=      5-min Rain = 0
KOD1 260844Z 15017KT 23/20 A2995 RMK A01 T02300201  RH  084%=      5-min Rain = 0
KOD1 260845Z 15018KT 23/20 A2995 RMK A01 T02300201  RH  084%=      5-min Rain = 0
KOD1 260846Z 15017KT 23/20 A2995 RMK A01 T02300201  RH  084%=      5-min Rain = 0
KOD1 260847Z 14014KT 23/20 A2995 RMK A01 T02300201  RH  084%=      5-min Rain = 0
KOD1 260848Z 15015KT 23/20 A2995 RMK A01 T02290202  RH  084%=      5-min Rain = 0
KOD1 260849Z 15014KT 23/20 A2995 RMK A01 T02290202  RH  084%=      5-min Rain = 0
KOD1 260850Z 14013G18KT 23/20 A2995 RMK A01 T02280201  RH  085%=      5-min Rain = 0
KOD1 260851Z 14012KT 23/20 A2995 RMK A01 T02280201  RH  085%=      5-min Rain = 0
KOD1 260852Z 14011KT 23/20 A2995 RMK A01 T02270201  RH  085%=      5-min Rain = 0
KOD1 260853Z 14013KT 23/20 A2995 RMK A01 T02270201  RH  085%=      5-min Rain = 0
KOD1 260854Z 14013KT 23/20 A2995 RMK A01 T02270201  RH  085%=      5-min Rain = 0
KOD1 260855Z 15014KT 23/20 A2995 RMK A01 T02270201  RH  085%=      5-min Rain = 0
KOD1 260856Z 15014KT 23/20 A2995 RMK A01 T02280201  RH  085%=      5-min Rain = 0
KOD1 260857Z 15013KT 23/20 A2995 RMK A01 T02280201  RH  085%=      5-min Rain = 0
KOD1 260858Z 15013KT 23/20 A2995 RMK A01 T02270201  RH  085%=      5-min Rain = 0
KOD1 260859Z 14015KT 23/20 A2995 RMK A01 T02270201  RH  085%=      5-min Rain = 0
KOD1 260900Z 14013KT 23/20 A2995 RMK A01 T02270201  RH  085%=      5-min Rain = 0
KOD1 260901Z 14011KT 23/20 A2995 RMK A01 T02270201  RH  085%=      5-min Rain = 0
KOD1 260902Z 15012KT 23/20 A2995 RMK A01 T02270201  RH  085%=      5-min Rain = 0
KOD1 260903Z 14011KT 23/20 A2995 RMK A01 T02270201  RH  085%=      5-min Rain = 0
KOD1 260904Z 14012KT 23/20 A2995 RMK A01 T02270201  RH  085%=      5-min Rain = 0
KOD1 260905Z 14011KT 23/20 A2995 RMK A01 T02270201  RH  085%=      5-min Rain = 0
KOD1 260906Z 14011KT 23/20 A2995 RMK A01 T02260201  RH  085%=      5-min Rain = 0
KOD1 260907Z 13010KT 23/20 A2995 RMK A01 T02260201  RH  086%=      5-min Rain = 0
KOD1 260908Z 13012KT 23/20 A2995 RMK A01 T02250200  RH  086%=      5-min Rain = 0
KOD1 260909Z 14011KT 23/20 A2995 RMK A01 T02250200  RH  086%=      5-min Rain = 0
KOD1 260910Z 13011KT 23/20 A2995 RMK A01 T02250201  RH  086%=      5-min Rain = 0
KOD1 260911Z 14011KT 23/20 A2995 RMK A01 T02250201  RH  086%=      5-min Rain = 0
KOD1 260912Z 14011KT 22/20 A2995 RMK A01 T02240201  RH  086%=      5-min Rain = 0
KOD1 260913Z 14011KT 22/20 A2995 RMK A01 T02240201  RH  086%=      5-min Rain = 0
KOD1 260914Z 14012KT 22/20 A2995 RMK A01 T02240200  RH  087%=      5-min Rain = 0
KOD1 260915Z 14011G16KT 22/20 A2995 RMK A01 T02240201  RH  086%=      5-min Rain = 0
KOD1 260916Z 14013KT 22/20 A2995 RMK A01 T02240200  RH  086%=      5-min Rain = 0
KOD1 260917Z 14012KT 22/20 A2995 RMK A01 T02240200  RH  086%=      5-min Rain = 0
KOD1 260918Z 14013KT 22/20 A2995 RMK A01 T02240200  RH  086%=      5-min Rain = 0
KOD1 260919Z 14012KT 22/20 A2995 RMK A01 T02240200  RH  086%=      5-min Rain = 0
KOD1 260920Z 14013KT 22/20 A2995 RMK A01 T02240200  RH  086%=      5-min Rain = 0
KOD1 260921Z 14012KT 22/20 A2995 RMK A01 T02240200  RH  086%=      5-min Rain = 0
KOD1 260922Z 14014KT 22/20 A2995 RMK A01 T02240200  RH  086%=      5-min Rain = 0
KOD1 260923Z 14013KT 22/20 A2995 RMK A01 T02240200  RH  086%=      5-min Rain = 0
KOD1 260924Z 14013KT 22/20 A2995 RMK A01 T02240200  RH  086%=      5-min Rain = 0
KOD1 260925Z 14013KT 22/20 A2995 RMK A01 T02240200  RH  086%=      5-min Rain = 0
KOD1 260926Z 14013KT 22/20 A2995 RMK A01 T02240200  RH  086%=      5-min Rain = 0
KOD1 260927Z 14012KT 22/20 A2995 RMK A01 T02240200  RH  086%=      5-min Rain = 0
KOD1 260928Z 14014KT 22/20 A2995 RMK A01 T02240200  RH  086%=      5-min Rain = 0
KOD1 260929Z 14015KT 22/20 A2995 RMK A01 T02240200  RH  086%=      5-min Rain = 0
KOD1 260930Z 14011KT 22/20 A2995 RMK A01 T02240199  RH  086%=      5-min Rain = 0
KOD1 260931Z 14012KT 22/20 A2995 RMK A01 T02240200  RH  086%=      5-min Rain = 0
KOD1 260932Z 13013KT 22/20 A2995 RMK A01 T02230200  RH  087%=      5-min Rain = 0
KOD1 260933Z 14012KT 22/20 A2995 RMK A01 T02230200  RH  087%=      5-min Rain = 0
KOD1 260934Z 14014KT 22/20 A2995 RMK A01 T02230200  RH  086%=      5-min Rain = 0
KOD1 260935Z 14013KT 22/20 A2995 RMK A01 T02230199  RH  086%=      5-min Rain = 0
KOD1 260936Z 13012KT 22/20 A2995 RMK A01 T02230199  RH  086%=      5-min Rain = 0
KOD1 260937Z 14009KT 22/20 A2995 RMK A01 T02230199  RH  087%=      5-min Rain = 0
KOD1 260938Z 14014KT 22/20 A2995 RMK A01 T02220199  RH  087%=      5-min Rain = 0
KOD1 260939Z 14013KT 22/20 A2995 RMK A01 T02220199  RH  087%=      5-min Rain = 0
KOD1 260940Z 14013KT 22/20 A2995 RMK A01 T02220199  RH  087%=      5-min Rain = 0
KOD1 260941Z 14014KT 22/20 A2995 RMK A01 T02220199  RH  087%=      5-min Rain = 0
KOD1 260942Z 13011KT 22/20 A2995 RMK A01 T02220199  RH  086%=      5-min Rain = 0
KOD1 260943Z 14011KT 22/20 A2995 RMK A01 T02220199  RH  087%=      5-min Rain = 0
KOD1 260944Z 14013KT 22/20 A2995 RMK A01 T02220199  RH  087%=      5-min Rain = 0
KOD1 260945Z 14013KT 22/20 A2995 RMK A01 T02220199  RH  086%=      5-min Rain = 0
KOD1 260946Z 13012KT 22/20 A2995 RMK A01 T02220199  RH  086%=      5-min Rain = 0
KOD1 260947Z 13011KT 22/20 A2995 RMK A01 T02230199  RH  087%=      5-min Rain = 0
KOD1 260948Z 14013KT 22/20 A2995 RMK A01 T02220199  RH  087%=      5-min Rain = 0
KOD1 260949Z 14012KT 22/20 A2995 RMK A01 T02220199  RH  087%=      5-min Rain = 0
KOD1 260950Z 14012KT 22/20 A2995 RMK A01 T02220199  RH  087%=      5-min Rain = 0
KOD1 260951Z 13011KT 22/20 A2996 RMK A01 T02220199  RH  087%=      5-min Rain = 0
KOD1 260952Z 14012KT 22/20 A2996 RMK A01 T02210199  RH  087%=      5-min Rain = 0
KOD1 260953Z 14013KT 22/20 A2996 RMK A01 T02220199  RH  087%=      5-min Rain = 0
KOD1 260954Z 13013KT 22/20 A2996 RMK A01 T02220198  RH  087%=      5-min Rain = 0
KOD1 260955Z 14011KT 22/20 A2996 RMK A01 T02220199  RH  087%=      5-min Rain = 0
KOD1 260956Z 14012KT 22/20 A2996 RMK A01 T02210199  RH  087%=      5-min Rain = 0
KOD1 260957Z 14013KT 22/20 A2996 RMK A01 T02210199  RH  087%=      5-min Rain = 0
KOD1 260958Z 14012KT 22/20 A2996 RMK A01 T02210198  RH  087%=      5-min Rain = 0
KOD1 260959Z 14012KT 22/20 A2996 RMK A01 T02210198  RH  087%=      5-min Rain = 0
KOD1 261000Z 14011KT 22/20 A2996 RMK A01 T02210199  RH  087%=      5-min Rain = 0
KOD1 261001Z 14012KT 22/20 A2996 RMK A01 T02210198  RH  087%=      5-min Rain = 0
KOD1 261002Z 14011KT 22/20 A2996 RMK A01 T02210198  RH  087%=      5-min Rain = 0
KOD1 261003Z 14011KT 22/20 A2996 RMK A01 T02200198  RH  087%=      5-min Rain = 0
KOD1 261004Z 14014KT 22/20 A2996 RMK A01 T02210198  RH  087%=      5-min Rain = 0
KOD1 261005Z 14011KT 22/20 A2996 RMK A01 T02210198  RH  086%=      5-min Rain = 0
KOD1 261006Z 14010KT 22/20 A2996 RMK A01 T02210198  RH  087%=      5-min Rain = 0
KOD1 261007Z 14012KT 22/20 A2996 RMK A01 T02200198  RH  087%=      5-min Rain = 0
KOD1 261008Z 14011KT 22/20 A2996 RMK A01 T02210198  RH  087%=      5-min Rain = 0
KOD1 261009Z 14012KT 22/20 A2996 RMK A01 T02200198  RH  087%=      5-min Rain = 0
KOD1 261010Z 14011KT 22/20 A2996 RMK A01 T02210198  RH  087%=      5-min Rain = 0
KOD1 261011Z 14012KT 22/20 A2996 RMK A01 T02210198  RH  087%=      5-min Rain = 0
KOD1 261012Z 14011KT 22/20 A2996 RMK A01 T02200198  RH  087%=      5-min Rain = 0
KOD1 261013Z 14011KT 22/20 A2996 RMK A01 T02200198  RH  087%=      5-min Rain = 0
KOD1 261014Z 14011KT 22/20 A2996 RMK A01 T02200198  RH  087%=      5-min Rain = 0
KOD1 261015Z 13011KT 22/20 A2996 RMK A01 T02190198  RH  088%=      5-min Rain = 0
KOD1 261016Z 14012KT 22/20 A2996 RMK A01 T02190198  RH  087%=      5-min Rain = 0
KOD1 261017Z 14011KT 22/20 A2996 RMK A01 T02190197  RH  087%=      5-min Rain = 0
KOD1 261018Z 14011KT 22/20 A2996 RMK A01 T02190197  RH  087%=      5-min Rain = 0
KOD1 261019Z 13013KT 22/20 A2996 RMK A01 T02200198  RH  087%=      5-min Rain = 0
KOD1 261020Z 14012KT 22/20 A2997 RMK A01 T02210197  RH  087%=      5-min Rain = 0
KOD1 261021Z 14010KT 22/20 A2997 RMK A01 T02210198  RH  087%=      5-min Rain = 0
KOD1 261022Z 14012KT 22/20 A2997 RMK A01 T02200198  RH  087%=      5-min Rain = 0
KOD1 261023Z 14014KT 22/20 A2997 RMK A01 T02200198  RH  087%=      5-min Rain = 0
KOD1 261024Z 14011KT 22/20 A2997 RMK A01 T02210197  RH  087%=      5-min Rain = 0
KOD1 261025Z 14012KT 22/20 A2997 RMK A01 T02200197  RH  087%=      5-min Rain = 0
KOD1 261026Z 13012KT 22/20 A2997 RMK A01 T02200197  RH  087%=      5-min Rain = 0
KOD1 261027Z 14011KT 22/20 A2997 RMK A01 T02200197  RH  087%=      5-min Rain = 0
KOD1 261028Z 13011KT 22/20 A2997 RMK A01 T02200197  RH  087%=      5-min Rain = 0
KOD1 261029Z 14011KT 22/20 A2997 RMK A01 T02190197  RH  087%=      5-min Rain = 0
KOD1 261030Z 13010KT 22/20 A2997 RMK A01 T02190197  RH  087%=      5-min Rain = 0
KOD1 261031Z 14011KT 22/20 A2997 RMK A01 T02190197  RH  087%=      5-min Rain = 0
KOD1 261032Z 14012KT 22/20 A2997 RMK A01 T02190197  RH  087%=      5-min Rain = 0
KOD1 261033Z 13013KT 22/20 A2997 RMK A01 T02190197  RH  087%=      5-min Rain = 0
KOD1 261034Z 14011KT 22/20 A2997 RMK A01 T02190197  RH  087%=      5-min Rain = 0
KOD1 261035Z 13011KT 22/20 A2997 RMK A01 T02190197  RH  087%=      5-min Rain = 0
KOD1 261036Z 14011KT 22/20 A2997 RMK A01 T02180197  RH  087%=      5-min Rain = 0
KOD1 261037Z 14012KT 22/20 A2997 RMK A01 T02180197  RH  088%=      5-min Rain = 0
KOD1 261038Z 14010KT 22/20 A2997 RMK A01 T02180197  RH  088%=      5-min Rain = 0
KOD1 261039Z 14011KT 22/20 A2997 RMK A01 T02180197  RH  088%=      5-min Rain = 0
KOD1 261040Z 14011KT 22/20 A2997 RMK A01 T02170196  RH  088%=      5-min Rain = 0
KOD1 261041Z 14012KT 22/20 A2997 RMK A01 T02170197  RH  088%=      5-min Rain = 0
KOD1 261042Z 14013KT 22/20 A2997 RMK A01 T02170196  RH  088%=      5-min Rain = 0
KOD1 261043Z 14010KT 22/20 A2997 RMK A01 T02170196  RH  088%=      5-min Rain = 0
KOD1 261044Z 14011KT 22/20 A2997 RMK A01 T02170197  RH  088%=      5-min Rain = 0
KOD1 261045Z 14012KT 22/20 A2996 RMK A01 T02170196  RH  088%=      5-min Rain = 0
KOD1 261046Z 14012KT 22/20 A2997 RMK A01 T02170196  RH  088%=      5-min Rain = 0
KOD1 261047Z 14010KT 22/20 A2997 RMK A01 T02170196  RH  088%=      5-min Rain = 0
KOD1 261048Z 14012KT 22/20 A2997 RMK A01 T02170196  RH  088%=      5-min Rain = 0
KOD1 261049Z 14012KT 22/20 A2997 RMK A01 T02170196  RH  088%=      5-min Rain = 0
KOD1 261050Z 14012KT 22/20 A2997 RMK A01 T02170196  RH  088%=      5-min Rain = 0
KOD1 261051Z 14010KT 22/20 A2997 RMK A01 T02170196  RH  088%=      5-min Rain = 0
KOD1 261052Z 14010KT 22/20 A2997 RMK A01 T02170196  RH  088%=      5-min Rain = 0
KOD1 261053Z 14011KT 22/20 A2997 RMK A01 T02170196  RH  088%=      5-min Rain = 0
KOD1 261054Z 14013KT 22/20 A2997 RMK A01 T02170196  RH  088%=      5-min Rain = 0
KOD1 261055Z 14010KT 22/20 A2997 RMK A01 T02170195  RH  087%=      5-min Rain = 0
KOD1 261056Z 14011KT 22/20 A2997 RMK A01 T02170196  RH  088%=      5-min Rain = 0
KOD1 261057Z 15012G17KT 22/20 A2997 RMK A01 T02160196  RH  088%=      5-min Rain = 0
KOD1 261058Z 14010KT 22/20 A2997 RMK A01 T02170195  RH  088%=      5-min Rain = 0
KOD1 261059Z 14011KT 22/20 A2997 RMK A01 T02160195  RH  088%=      5-min Rain = 0
KOD1 261100Z 15009KT 22/20 A2997 RMK A01 T02170196  RH  088%=      5-min Rain = 0
KOD1 261101Z 14011KT 22/20 A2998 RMK A01 T02160196  RH  088%=      5-min Rain = 0
KOD1 261102Z 15010KT 22/20 A2997 RMK A01 T02160196  RH  088%=      5-min Rain = 0
KOD1 261103Z 14011KT 22/20 A2998 RMK A01 T02160196  RH  088%=      5-min Rain = 0
KOD1 261104Z 15013KT 22/20 A2998 RMK A01 T02160195  RH  088%=      5-min Rain = 0
KOD1 261105Z 14011KT 22/20 A2998 RMK A01 T02160195  RH  088%=      5-min Rain = 0
KOD1 261106Z 14010KT 22/20 A2998 RMK A01 T02160196  RH  088%=      5-min Rain = 0
KOD1 261107Z 15012KT 22/20 A2998 RMK A01 T02160195  RH  088%=      5-min Rain = 0
KOD1 261108Z 14011KT 22/20 A2998 RMK A01 T02160195  RH  088%=      5-min Rain = 0
KOD1 261109Z 14012KT 22/20 A2998 RMK A01 T02160195  RH  088%=      5-min Rain = 0
KOD1 261110Z 14011KT 22/20 A2998 RMK A01 T02160195  RH  088%=      5-min Rain = 0
KOD1 261111Z 14013G19KT 22/20 A2998 RMK A01 T02160195  RH  088%=      5-min Rain = 0
KOD1 261112Z 14011KT 22/20 A2998 RMK A01 T02170195  RH  087%=      5-min Rain = 0
KOD1 261113Z 15010KT 22/20 A2998 RMK A01 T02170195  RH  087%=      5-min Rain = 0
KOD1 261114Z 14010KT 22/20 A2998 RMK A01 T02160195  RH  088%=      5-min Rain = 0
KOD1 261115Z 15011KT 22/20 A2998 RMK A01 T02160195  RH  088%=      5-min Rain = 0
KOD1 261116Z 15011KT 22/20 A2998 RMK A01 T02160195  RH  088%=      5-min Rain = 0
KOD1 261117Z 14011KT 22/20 A2998 RMK A01 T02150195  RH  088%=      5-min Rain = 0
KOD1 261118Z 14011KT 22/20 A2998 RMK A01 T02150195  RH  088%=      5-min Rain = 0
KOD1 261119Z 14010KT 22/19 A2998 RMK A01 T02160194  RH  088%=      5-min Rain = 0
KOD1 261120Z 15012KT 22/19 A2998 RMK A01 T02150194  RH  088%=      5-min Rain = 0
KOD1 261121Z 14012KT 22/19 A2998 RMK A01 T02160194  RH  088%=      5-min Rain = 0
KOD1 261122Z 15014KT 22/19 A2998 RMK A01 T02160194  RH  087%=      5-min Rain = 0
KOD1 261123Z 14013KT 22/19 A2998 RMK A01 T02160194  RH  087%=      5-min Rain = 0
KOD1 261124Z 14010KT 22/19 A2998 RMK A01 T02170194  RH  087%=      5-min Rain = 0
KOD1 261125Z 14010KT 22/19 A2998 RMK A01 T02160194  RH  087%=      5-min Rain = 0
KOD1 261126Z 14012KT 22/19 A2998 RMK A01 T02150194  RH  088%=      5-min Rain = 0
KOD1 261127Z 14010KT 22/19 A2998 RMK A01 T02150194  RH  088%=      5-min Rain = 0
KOD1 261128Z 14009KT 22/19 A2998 RMK A01 T02150194  RH  088%=      5-min Rain = 0
KOD1 261129Z 14011KT 21/19 A2998 RMK A01 T02140194  RH  088%=      5-min Rain = 0
KOD1 261130Z 14009KT 21/19 A2998 RMK A01 T02140194  RH  088%=      5-min Rain = 0
KOD1 261131Z 14009KT 21/19 A2999 RMK A01 T02130194  RH  089%=      5-min Rain = 0
KOD1 261132Z 14009KT 21/19 A2999 RMK A01 T02130194  RH  089%=      5-min Rain = 0
KOD1 261133Z 15010KT 21/19 A2999 RMK A01 T02130194  RH  089%=      5-min Rain = 0
KOD1 261134Z 15011KT 21/19 A2999 RMK A01 T02130194  RH  089%=      5-min Rain = 0
KOD1 261135Z 14011KT 21/19 A2999 RMK A01 T02130194  RH  089%=      5-min Rain = 0
KOD1 261136Z 15011KT 21/19 A2999 RMK A01 T02140193  RH  088%=      5-min Rain = 0
KOD1 261137Z 15011KT 21/19 A2999 RMK A01 T02140193  RH  088%=      5-min Rain = 0
KOD1 261138Z 14011KT 21/19 A2999 RMK A01 T02140194  RH  088%=      5-min Rain = 0
KOD1 261139Z 15010KT 21/19 A2999 RMK A01 T02140193  RH  088%=      5-min Rain = 0
KOD1 261140Z 15013KT 21/19 A2999 RMK A01 T02140194  RH  088%=      5-min Rain = 0
KOD1 261141Z 14012KT 21/19 A2999 RMK A01 T02140193  RH  088%=      5-min Rain = 0
KOD1 261142Z 15010KT 21/19 A2999 RMK A01 T02140193  RH  088%=      5-min Rain = 0
KOD1 261143Z 15010KT 21/19 A2999 RMK A01 T02140193  RH  088%=      5-min Rain = 0
KOD1 261144Z 15011KT 21/19 A2999 RMK A01 T02130193  RH  088%=      5-min Rain = 0
KOD1 261145Z 15012KT 21/19 A2999 RMK A01 T02130193  RH  088%=      5-min Rain = 0
KOD1 261146Z 15013KT 21/19 A2999 RMK A01 T02140193  RH  088%=      5-min Rain = 0
KOD1 261147Z 14009KT 21/19 A2999 RMK A01 T02140193  RH  088%=      5-min Rain = 0
KOD1 261148Z 15011KT 21/19 A2999 RMK A01 T02130193  RH  088%=      5-min Rain = 0
KOD1 261149Z 14010KT 21/19 A2999 RMK A01 T02130193  RH  088%=      5-min Rain = 0
KOD1 261150Z 15011KT 21/19 A2999 RMK A01 T02130193  RH  088%=      5-min Rain = 0
KOD1 261151Z 14010KT 21/19 A2999 RMK A01 T02140193  RH  088%=      5-min Rain = 0
KOD1 261152Z 14009KT 21/19 A2999 RMK A01 T02140193  RH  088%=      5-min Rain = 0
KOD1 261153Z 14009KT 21/19 A2999 RMK A01 T02140193  RH  088%=      5-min Rain = 0
KOD1 261154Z 15010KT 21/19 A2999 RMK A01 T02130193  RH  088%=      5-min Rain = 0
KOD1 261155Z 15013KT 21/19 A2999 RMK A01 T02140193  RH  088%=      5-min Rain = 0
KOD1 261156Z 15012KT 21/19 A2999 RMK A01 T02140193  RH  088%=      5-min Rain = 0
KOD1 261157Z 15013KT 22/19 A2999 RMK A01 T02150193  RH  088%=      5-min Rain = 0
KOD1 261158Z 14012KT 22/19 A2999 RMK A01 T02150193  RH  088%=      5-min Rain = 0
KOD1 261159Z 15012KT 22/19 A2999 RMK A01 T02150193  RH  088%=      5-min Rain = 0
KOD1 261200Z 15011KT 22/19 A2999 RMK A01 T02150193  RH  088%=      5-min Rain = 0
KOD1 261201Z 15011KT 21/19 A2999 RMK A01 T02140193  RH  088%=      5-min Rain = 0
KOD1 261202Z 15013KT 21/19 A2999 RMK A01 T02140193  RH  088%=      5-min Rain = 0
KOD1 261203Z 15013KT 21/19 A2999 RMK A01 T02140193  RH  088%=      5-min Rain = 0
KOD1 261204Z 14012KT 22/19 A2999 RMK A01 T02150194  RH  088%=      5-min Rain = 0
KOD1 261205Z 15013KT 22/19 A2999 RMK A01 T02150193  RH  088%=      5-min Rain = 0
KOD1 261206Z 15011KT 22/19 A2999 RMK A01 T02150193  RH  088%=      5-min Rain = 0
KOD1 261207Z 15012KT 22/19 A2999 RMK A01 T02150193  RH  088%=      5-min Rain = 0
KOD1 261208Z 15012KT 22/19 A2999 RMK A01 T02150193  RH  088%=      5-min Rain = 0
KOD1 261209Z 15013KT 22/19 A2999 RMK A01 T02150193  RH  088%=      5-min Rain = 0
KOD1 261210Z 15010KT 22/19 A2999 RMK A01 T02150194  RH  088%=      5-min Rain = 0
KOD1 261211Z 15012KT 22/19 A2999 RMK A01 T02150194  RH  088%=      5-min Rain = 0
KOD1 261212Z 14009KT 22/19 A2999 RMK A01 T02150194  RH  088%=      5-min Rain = 0
KOD1 261213Z 15011KT 22/19 A2999 RMK A01 T02150194  RH  088%=      5-min Rain = 0
KOD1 261214Z 15012KT 22/19 A2999 RMK A01 T02150194  RH  088%=      5-min Rain = 0
KOD1 261215Z 15011KT 22/19 A30 RMK A01 T02150194  RH  088%=      5-min Rain = 0
KOD1 261216Z 15010KT 22/19 A30 RMK A01 T02150194  RH  088%=      5-min Rain = 0
KOD1 261217Z 15011KT 22/19 A30 RMK A01 T02150194  RH  087%=      5-min Rain = 0
KOD1 261218Z 15012KT 22/19 A30 RMK A01 T02150193  RH  087%=      5-min Rain = 0
KOD1 261219Z 15012KT 22/19 A30 RMK A01 T02150193  RH  087%=      5-min Rain = 0
KOD1 261220Z 15010KT 22/19 A30 RMK A01 T02150193  RH  087%=      5-min Rain = 0
KOD1 261221Z 15011KT 22/19 A30 RMK A01 T02150193  RH  087%=      5-min Rain = 0
KOD1 261222Z 15013KT 22/19 A30 RMK A01 T02160193  RH  087%=      5-min Rain = 0
KOD1 261223Z 14013KT 22/19 A30 RMK A01 T02160193  RH  087%=      5-min Rain = 0
KOD1 261224Z 15012KT 22/19 A30 RMK A01 T02160193  RH  087%=      5-min Rain = 0
KOD1 261225Z 14011KT 22/19 A30 RMK A01 T02160193  RH  087%=      5-min Rain = 0
KOD1 261226Z 15014KT 22/19 A30 RMK A01 T02160194  RH  087%=      5-min Rain = 0
KOD1 261227Z 15011KT 22/19 A30 RMK A01 T02160193  RH  087%=      5-min Rain = 0
KOD1 261228Z 15013KT 22/19 A30 RMK A01 T02160193  RH  087%=      5-min Rain = 0
KOD1 261229Z 15011KT 22/19 A30 RMK A01 T02160194  RH  087%=      5-min Rain = 0
KOD1 261230Z 15011KT 22/19 A30 RMK A01 T02150194  RH  088%=      5-min Rain = 0
KOD1 261231Z 15010KT 22/19 A30 RMK A01 T02150194  RH  088%=      5-min Rain = 0
KOD1 261232Z 15010KT 22/20 A30 RMK A01 T02160195  RH  088%=      5-min Rain = 0
KOD1 261233Z 15011KT 22/20 A30 RMK A01 T02150195  RH  088%=      5-min Rain = 0
KOD1 261234Z 15013KT 22/19 A30 RMK A01 T02150194  RH  088%=      5-min Rain = 0
KOD1 261235Z 15011KT 22/19 A30 RMK A01 T02150194  RH  088%=      5-min Rain = 0
KOD1 261236Z 15011KT 22/19 A30 RMK A01 T02150194  RH  088%=      5-min Rain = 0
KOD1 261237Z 15012KT 22/19 A30 RMK A01 T02150194  RH  088%=      5-min Rain = 0
KOD1 261238Z 15012KT 22/19 A30 RMK A01 T02150194  RH  088%=      5-min Rain = 0
KOD1 261239Z 15012KT 22/19 A30 RMK A01 T02150194  RH  088%=      5-min Rain = 0
KOD1 261240Z 15012KT 22/19 A30 RMK A01 T02150194  RH  088%=      5-min Rain = 0
KOD1 261241Z 16011KT 22/19 A30 RMK A01 T02150194  RH  088%=      5-min Rain = 0
KOD1 261242Z 16013KT 22/20 A30 RMK A01 T02160195  RH  088%=      5-min Rain = 0
KOD1 261243Z 16013KT 22/19 A30 RMK A01 T02160194  RH  087%=      5-min Rain = 0
KOD1 261244Z 16012KT 22/19 A30 RMK A01 T02170194  RH  087%=      5-min Rain = 0
KOD1 261245Z 15011KT 22/20 A30 RMK A01 T02170195  RH  087%=      5-min Rain = 0
KOD1 261246Z 16015KT 22/20 A3001 RMK A01 T02180195  RH  087%=      5-min Rain = 0
KOD1 261247Z 16014KT 22/19 A3001 RMK A01 T02180194  RH  086%=      5-min Rain = 0
KOD1 261248Z 15013KT 22/20 A3001 RMK A01 T02180195  RH  087%=      5-min Rain = 0
KOD1 261249Z 16013KT 22/20 A3001 RMK A01 T02180195  RH  087%=      5-min Rain = 0
KOD1 261250Z 16013KT 22/19 A3001 RMK A01 T02170194  RH  087%=      5-min Rain = 0
KOD1 261251Z 16013KT 22/20 A3001 RMK A01 T02170195  RH  087%=      5-min Rain = 0
KOD1 261252Z 16013KT 22/20 A3001 RMK A01 T02170195  RH  087%=      5-min Rain = 0
KOD1 261253Z 16013KT 22/20 A3001 RMK A01 T02180195  RH  087%=      5-min Rain = 0
KOD1 261254Z 16014KT 22/20 A3001 RMK A01 T02180195  RH  087%=      5-min Rain = 0
KOD1 261255Z 16013KT 22/19 A3001 RMK A01 T02170194  RH  087%=      5-min Rain = 0
KOD1 261256Z 16013KT 22/19 A3001 RMK A01 T02170194  RH  087%=      5-min Rain = 0
KOD1 261257Z 16012G17KT 22/20 A3001 RMK A01 T02180195  RH  087%=      5-min Rain = 0
KOD1 261258Z 16013KT 22/20 A3001 RMK A01 T02180195  RH  087%=      5-min Rain = 0
KOD1 261259Z 16013KT 22/20 A3001 RMK A01 T02190195  RH  087%=      5-min Rain = 0
KOD1 261300Z 16014KT 22/20 A3001 RMK A01 T02180195  RH  086%=      5-min Rain = 0
KOD1 261301Z 16015KT 22/20 A3001 RMK A01 T02190195  RH  086%=      5-min Rain = 0
KOD1 261302Z 16014KT 22/20 A3002 RMK A01 T02190195  RH  086%=      5-min Rain = 0
KOD1 261303Z 16013KT 22/20 A3002 RMK A01 T02190195  RH  086%=      5-min Rain = 0
KOD1 261304Z 16012KT 22/20 A3002 RMK A01 T02190196  RH  086%=      5-min Rain = 0
KOD1 261305Z 16010KT 22/20 A3002 RMK A01 T02200197  RH  087%=      5-min Rain = 0
KOD1 261306Z 16010KT 22/20 A3002 RMK A01 T02200196  RH  087%=      5-min Rain = 0
KOD1 261307Z 17011KT 22/20 A3002 RMK A01 T02200197  RH  086%=      5-min Rain = 0
KOD1 261308Z 16012KT 22/20 A3002 RMK A01 T02210196  RH  086%=      5-min Rain = 0
KOD1 261309Z 16014KT 22/20 A3002 RMK A01 T02210196  RH  086%=      5-min Rain = 0
KOD1 261310Z 17012KT 22/20 A3002 RMK A01 T02220196  RH  085%=      5-min Rain = 0
KOD1 261311Z 17011KT 22/20 A3002 RMK A01 T02220196  RH  085%=      5-min Rain = 0
KOD1 261312Z 17014KT 22/20 A3002 RMK A01 T02220196  RH  085%=      5-min Rain = 0
KOD1 261313Z 17010KT 22/20 A3002 RMK A01 T02230197  RH  085%=      5-min Rain = 0
KOD1 261314Z 17012KT 22/20 A3002 RMK A01 T02240197  RH  085%=      5-min Rain = 0
KOD1 261315Z 17015KT 22/20 A3002 RMK A01 T02230196  RH  084%=      5-min Rain = 0
KOD1 261316Z 17016KT 22/20 A3002 RMK A01 T02230195  RH  084%=      5-min Rain = 0
KOD1 261317Z 17012KT 22/20 A3002 RMK A01 T02230196  RH  085%=      5-min Rain = 0
KOD1 261318Z 17014KT 22/20 A3002 RMK A01 T02220195  RH  085%=      5-min Rain = 0
KOD1 261319Z 17015KT 22/20 A3002 RMK A01 T02220196  RH  085%=      5-min Rain = 0
KOD1 261320Z 16016KT 22/20 A3002 RMK A01 T02230195  RH  084%=      5-min Rain = 0
KOD1 261321Z 16014KT 22/20 A3002 RMK A01 T02230195  RH  084%=      5-min Rain = 0
KOD1 261322Z 17014KT 22/20 A3002 RMK A01 T02230196  RH  085%=      5-min Rain = 0
KOD1 261323Z 17014KT 22/20 A3002 RMK A01 T02240197  RH  085%=      5-min Rain = 0
KOD1 261324Z 16014KT 22/20 A3002 RMK A01 T02240197  RH  085%=      5-min Rain = 0
KOD1 261325Z 16015KT 22/20 A3002 RMK A01 T02240196  RH  084%=      5-min Rain = 0
KOD1 261326Z 16013KT 22/20 A3002 RMK A01 T02240196  RH  084%=      5-min Rain = 0
KOD1 261327Z 16014KT 22/20 A3002 RMK A01 T02240196  RH  084%=      5-min Rain = 0
KOD1 261328Z 17016G21KT 22/20 A3002 RMK A01 T02240195  RH  084%=      5-min Rain = 0
KOD1 261329Z 16014KT 22/20 A3002 RMK A01 T02230195  RH  084%=      5-min Rain = 0
KOD1 261330Z 17013KT 22/20 A3002 RMK A01 T02230196  RH  085%=      5-min Rain = 0
KOD1 261331Z 16011KT 22/20 A3002 RMK A01 T02240198  RH  085%=      5-min Rain = 0
KOD1 261332Z 16012KT 22/20 A3002 RMK A01 T02240198  RH  085%=      5-min Rain = 0
KOD1 261333Z 16015KT 23/20 A3002 RMK A01 T02250197  RH  084%=      5-min Rain = 0
KOD1 261334Z 16015KT 22/20 A3002 RMK A01 T02240196  RH  084%=      5-min Rain = 0
KOD1 261335Z 16012KT 22/20 A3002 RMK A01 T02230196  RH  085%=      5-min Rain = 0
KOD1 261336Z 16011KT 22/20 A3002 RMK A01 T02240198  RH  085%=      5-min Rain = 0
KOD1 261337Z 16012G18KT 22/20 A3002 RMK A01 T02240199  RH  086%=      5-min Rain = 0
KOD1 261338Z 17013KT 23/20 A3002 RMK A01 T02250197  RH  084%=      5-min Rain = 0
KOD1 261339Z 17013KT 22/20 A3003 RMK A01 T02240196  RH  084%=      5-min Rain = 0
KOD1 261340Z 16011KT 22/20 A3003 RMK A01 T02230196  RH  085%=      5-min Rain = 0
KOD1 261341Z 16015KT 22/20 A3003 RMK A01 T02240197  RH  085%=      5-min Rain = 0
KOD1 261342Z 16013KT 22/20 A3003 RMK A01 T02240197  RH  085%=      5-min Rain = 0
KOD1 261343Z 16012KT 23/20 A3003 RMK A01 T02250198  RH  085%=      5-min Rain = 0
KOD1 261344Z 17016KT 23/20 A3003 RMK A01 T02250197  RH  084%=      5-min Rain = 0
KOD1 261345Z 16014KT 23/20 A3003 RMK A01 T02250196  RH  084%=      5-min Rain = 0
KOD1 261346Z 17013KT 23/20 A3003 RMK A01 T02250197  RH  084%=      5-min Rain = 0
KOD1 261347Z 17014KT 23/20 A3003 RMK A01 T02250198  RH  084%=      5-min Rain = 0
KOD1 261348Z 17014KT 23/20 A3003 RMK A01 T02260198  RH  084%=      5-min Rain = 0
KOD1 261349Z 16014KT 23/20 A3003 RMK A01 T02260198  RH  084%=      5-min Rain = 0
KOD1 261350Z 17012KT 23/20 A3003 RMK A01 T02260198  RH  084%=      5-min Rain = 0
KOD1 261351Z 17010KT 23/20 A3003 RMK A01 T02260198  RH  084%=      5-min Rain = 0
KOD1 261352Z 17013KT 23/20 A3003 RMK A01 T02260199  RH  084%=      5-min Rain = 0
KOD1 261353Z 17012KT 23/20 A3003 RMK A01 T02260198  RH  084%=      5-min Rain = 0
KOD1 261354Z 18012KT 23/20 A3003 RMK A01 T02260198  RH  084%=      5-min Rain = 0
KOD1 261355Z 18015KT 23/20 A3003 RMK A01 T02260197  RH  084%=      5-min Rain = 0
KOD1 261356Z 16012KT 23/20 A3003 RMK A01 T02260197  RH  084%=      5-min Rain = 0
KOD1 261357Z 16015KT 23/20 A3003 RMK A01 T02260197  RH  084%=      5-min Rain = 0
KOD1 261358Z 17012KT 23/20 A3003 RMK A01 T02270198  RH  084%=      5-min Rain = 0
KOD1 261359Z 17013KT 23/20 A3003 RMK A01 T02280198  RH  083%=      5-min Rain = 0
KOD1 261400Z 17013KT 23/20 A3003 RMK A01 T02280197  RH  083%=      5-min Rain = 0
KOD1 261401Z 17013KT 23/20 A3003 RMK A01 T02280199  RH  083%=      5-min Rain = 0
KOD1 261402Z 18011KT 23/20 A3003 RMK A01 T02280198  RH  083%=      5-min Rain = 0
KOD1 261403Z 17012KT 23/20 A3003 RMK A01 T02290199  RH  083%=      5-min Rain = 0
KOD1 261404Z 17016KT 23/20 A3003 RMK A01 T02290197  RH  082%=      5-min Rain = 0
KOD1 261405Z 18015KT 23/20 A3003 RMK A01 T02290198  RH  082%=      5-min Rain = 0
KOD1 261406Z 18015KT 23/20 A3003 RMK A01 T02300198  RH  082%=      5-min Rain = 0
KOD1 261407Z 18014KT 23/20 A3003 RMK A01 T02300196  RH  081%=      5-min Rain = 0
KOD1 261408Z 17011KT 23/20 A3003 RMK A01 T02310199  RH  082%=      5-min Rain = 0
KOD1 261409Z 18013KT 23/20 A3003 RMK A01 T02330200  RH  082%=      5-min Rain = 0
KOD1 261410Z 18011KT 23/20 A3003 RMK A01 T02330199  RH  081%=      5-min Rain = 0
KOD1 261411Z 17013KT 23/20 A3003 RMK A01 T02340200  RH  081%=      5-min Rain = 0
KOD1 261412Z 18015KT 23/20 A3003 RMK A01 T02320195  RH  080%=      5-min Rain = 0
KOD1 261413Z 17018KT 23/20 A3003 RMK A01 T02310196  RH  081%=      5-min Rain = 0
KOD1 261414Z 18017KT 23/20 A3003 RMK A01 T02300196  RH  081%=      5-min Rain = 0
KOD1 261415Z 18015KT 23/20 A3003 RMK A01 T02300197  RH  081%=      5-min Rain = 0
KOD1 261416Z 17015KT 23/20 A3003 RMK A01 T02300196  RH  081%=      5-min Rain = 0
KOD1 261417Z 17014KT 23/20 A3003 RMK A01 T02310198  RH  081%=      5-min Rain = 0
KOD1 261418Z 17016KT 23/20 A3003 RMK A01 T02320197  RH  081%=      5-min Rain = 0
KOD1 261419Z 18015KT 23/20 A3003 RMK A01 T02320197  RH  081%=      5-min Rain = 0
KOD1 261420Z 18014KT 23/20 A3003 RMK A01 T02310197  RH  081%=      5-min Rain = 0
KOD1 261421Z 18014KT 23/20 A3003 RMK A01 T02310196  RH  081%=      5-min Rain = 0
KOD1 261422Z 18012KT 23/20 A3003 RMK A01 T02310198  RH  082%=      5-min Rain = 0
KOD1 261423Z 18014KT 23/20 A3003 RMK A01 T02320198  RH  082%=      5-min Rain = 0
KOD1 261424Z 17016KT 23/20 A3003 RMK A01 T02320198  RH  081%=      5-min Rain = 0
KOD1 261425Z 17016KT 23/20 A3003 RMK A01 T02310195  RH  080%=      5-min Rain = 0
KOD1 261426Z 18014G20KT 23/20 A3003 RMK A01 T02320198  RH  081%=      5-min Rain = 0
KOD1 261427Z 18018G25KT 23/20 A3003 RMK A01 T02330197  RH  080%=      5-min Rain = 0
KOD1 261428Z 17018KT 23/19 A3003 RMK A01 T02330194  RH  079%=      5-min Rain = 0
KOD1 261429Z 18014KT 23/20 A3003 RMK A01 T02330196  RH  080%=      5-min Rain = 0
KOD1 261430Z 17012KT 24/20 A3003 RMK A01 T02350200  RH  080%=      5-min Rain = 0
KOD1 261431Z 17012KT 24/20 A3003 RMK A01 T02370199  RH  079%=      5-min Rain = 0
KOD1 261432Z 17016KT 24/20 A3003 RMK A01 T02380199  RH  079%=      5-min Rain = 0
KOD1 261433Z 17016KT 24/20 A3003 RMK A01 T02350195  RH  078%=      5-min Rain = 0
KOD1 261434Z 17017KT 24/20 A3003 RMK A01 T02350197  RH  079%=      5-min Rain = 0
KOD1 261435Z 18016KT 23/20 A3003 RMK A01 T02340196  RH  079%=      5-min Rain = 0
KOD1 261436Z 18014KT 24/20 A3003 RMK A01 T02360198  RH  079%=      5-min Rain = 0
KOD1 261437Z 17014G19KT 24/20 A3003 RMK A01 T02360198  RH  079%=      5-min Rain = 0
KOD1 261438Z 17017KT 24/20 A3003 RMK A01 T02370198  RH  078%=      5-min Rain = 0
KOD1 261439Z 18016KT 24/20 A3003 RMK A01 T02380197  RH  078%=      5-min Rain = 0
KOD1 261440Z 18014KT 24/20 A3003 RMK A01 T02360195  RH  078%=      5-min Rain = 0
KOD1 261441Z 18013KT 24/20 A3003 RMK A01 T02360197  RH  079%=      5-min Rain = 0
KOD1 261442Z 18014KT 24/20 A3003 RMK A01 T02370199  RH  079%=      5-min Rain = 0
KOD1 261443Z 19017KT 24/20 A3003 RMK A01 T02370195  RH  077%=      5-min Rain = 0
KOD1 261444Z 17019KT 24/19 A3003 RMK A01 T02360193  RH  077%=      5-min Rain = 0
KOD1 261445Z 18019KT 24/19 A3003 RMK A01 T02360193  RH  077%=      5-min Rain = 0
KOD1 261446Z 18021KT 24/19 A3003 RMK A01 T02350191  RH  076%=      5-min Rain = 0
KOD1 261447Z 18018KT 23/19 A3003 RMK A01 T02340191  RH  077%=      5-min Rain = 0
KOD1 261448Z 18018KT 23/19 A3003 RMK A01 T02340193  RH  077%=      5-min Rain = 0
KOD1 261449Z 18015KT 23/19 A3003 RMK A01 T02340193  RH  077%=      5-min Rain = 0
KOD1 261450Z 18012KT 23/20 A3003 RMK A01 T02340195  RH  078%=      5-min Rain = 0
KOD1 261451Z 18014KT 24/20 A3003 RMK A01 T02350196  RH  079%=      5-min Rain = 0
KOD1 261452Z 17017KT 24/20 A3003 RMK A01 T02360195  RH  078%=      5-min Rain = 0
KOD1 261453Z 18016KT 24/19 A3003 RMK A01 T02350194  RH  077%=      5-min Rain = 0
KOD1 261454Z 17017G22KT 24/19 A3003 RMK A01 T02350192  RH  077%=      5-min Rain = 0
KOD1 261455Z 18013KT 24/20 A3003 RMK A01 T02350195  RH  078%=      5-min Rain = 0
KOD1 261456Z 17015G20KT 24/19 A3003 RMK A01 T02360194  RH  077%=      5-min Rain = 0
KOD1 261457Z 17016G21KT 24/19 A3003 RMK A01 T02360193  RH  077%=      5-min Rain = 0
KOD1 261458Z 18016KT 24/19 A3002 RMK A01 T02350191  RH  076%=      5-min Rain = 0
KOD1 261459Z 18014KT 24/19 A3003 RMK A01 T02350193  RH  077%=      5-min Rain = 0
KOD1 261500Z 18018KT 24/19 A3003 RMK A01 T02360192  RH  076%=      5-min Rain = 0
KOD1 261501Z 18017KT 24/19 A3003 RMK A01 T02360192  RH  076%=      5-min Rain = 0
KOD1 261502Z 18014KT 24/19 A3003 RMK A01 T02360192  RH  077%=      5-min Rain = 0
KOD1 261503Z 17016KT 24/19 A3003 RMK A01 T02350192  RH  077%=      5-min Rain = 0
KOD1 261504Z 17015KT 24/19 A3003 RMK A01 T02350193  RH  077%=      5-min Rain = 0
KOD1 261505Z 18015KT 24/19 A3003 RMK A01 T02350194  RH  078%=      5-min Rain = 0
KOD1 261506Z 18013G18KT 24/19 A3003 RMK A01 T02350194  RH  078%=      5-min Rain = 0
KOD1 261507Z 18016KT 24/19 A3003 RMK A01 T02360194  RH  077%=      5-min Rain = 0
KOD1 261508Z 19013KT 24/19 A3003 RMK A01 T02360194  RH  077%=      5-min Rain = 0
KOD1 261509Z 19014KT 24/20 A3003 RMK A01 T02360195  RH  077%=      5-min Rain = 0
KOD1 261510Z 18019KT 24/19 A3003 RMK A01 T02370194  RH  076%=      5-min Rain = 0
KOD1 261511Z 18021KT 24/19 A3003 RMK A01 T02390193  RH  076%=      5-min Rain = 0
KOD1 261512Z 19019G24KT 24/19 A3002 RMK A01 T02390192  RH  075%=      5-min Rain = 0
KOD1 261513Z 19018KT 24/19 A3002 RMK A01 T02390192  RH  075%=      5-min Rain = 0
KOD1 261514Z 18016KT 24/19 A3003 RMK A01 T02380192  RH  075%=      5-min Rain = 0
KOD1 261515Z 19012KT 24/19 A3003 RMK A01 T02380194  RH  076%=      5-min Rain = 0
KOD1 261516Z 18015KT 24/19 A3003 RMK A01 T02380194  RH  076%=      5-min Rain = 0
KOD1 261517Z 18016KT 24/19 A3003 RMK A01 T02380193  RH  076%=      5-min Rain = 0
KOD1 261518Z 18015KT 24/19 A3003 RMK A01 T02390193  RH  076%=      5-min Rain = 0
KOD1 261519Z 18014KT 24/19 A3003 RMK A01 T02400194  RH  075%=      5-min Rain = 0
KOD1 261520Z 18016KT 24/19 A3003 RMK A01 T02410193  RH  075%=      5-min Rain = 0
KOD1 261521Z 18016KT 24/19 A3003 RMK A01 T02400193  RH  075%=      5-min Rain = 0
KOD1 261522Z 18013KT 24/19 A3003 RMK A01 T02400192  RH  074%=      5-min Rain = 0
KOD1 261523Z 18015KT 24/20 A3003 RMK A01 T02410195  RH  076%=      5-min Rain = 0
KOD1 261524Z 18015KT 24/19 A3003 RMK A01 T02410193  RH  075%=      5-min Rain = 0
KOD1 261525Z 17014KT 24/20 A3003 RMK A01 T02420195  RH  075%=      5-min Rain = 0
KOD1 261526Z 16014KT 24/20 A3003 RMK A01 T02420195  RH  075%=      5-min Rain = 0
KOD1 261527Z 17013KT 24/20 A3003 RMK A01 T02420195  RH  075%=      5-min Rain = 0
KOD1 261528Z 18012KT 24/20 A3003 RMK A01 T02420196  RH  075%=      5-min Rain = 0
KOD1 261529Z 18013KT 24/20 A3003 RMK A01 T02430196  RH  075%=      5-min Rain = 0
KOD1 261530Z 18016KT 24/20 A3003 RMK A01 T02430196  RH  075%=      5-min Rain = 0
KOD1 261531Z 18015KT 24/19 A3003 RMK A01 T02430193  RH  074%=      5-min Rain = 0
KOD1 261532Z 18015KT 24/19 A3003 RMK A01 T02420193  RH  074%=      5-min Rain = 0
KOD1 261533Z 18018KT 24/19 A3003 RMK A01 T02420192  RH  074%=      5-min Rain = 0
KOD1 261534Z 19018KT 24/19 A3003 RMK A01 T02420191  RH  073%=      5-min Rain = 0
KOD1 261535Z 18016KT 24/19 A3003 RMK A01 T02410192  RH  074%=      5-min Rain = 0
KOD1 261536Z 17016G21KT 24/19 A3003 RMK A01 T02420193  RH  074%=      5-min Rain = 0
KOD1 261537Z 18016KT 24/19 A3003 RMK A01 T02410191  RH  074%=      5-min Rain = 0
KOD1 261538Z 19013KT 24/19 A3003 RMK A01 T02410193  RH  075%=      5-min Rain = 0
KOD1 261539Z 18011KT 24/20 A3003 RMK A01 T02410195  RH  076%=      5-min Rain = 0
KOD1 261540Z 19014KT 24/20 A3003 RMK A01 T02420197  RH  076%=      5-min Rain = 0
KOD1 261541Z 18016KT 24/19 A3003 RMK A01 T02420192  RH  073%=      5-min Rain = 0
KOD1 261542Z 19011KT 24/19 A3003 RMK A01 T02420194  RH  074%=      5-min Rain = 0
KOD1 261543Z 19014KT 24/20 A3003 RMK A01 T02430196  RH  075%=      5-min Rain = 0
KOD1 261544Z 18016KT 24/19 A3003 RMK A01 T02440194  RH  074%=      5-min Rain = 0
KOD1 261545Z 19016KT 24/19 A3003 RMK A01 T02430193  RH  073%=      5-min Rain = 0
KOD1 261546Z 18015KT 24/19 A3003 RMK A01 T02430193  RH  073%=      5-min Rain = 0
KOD1 261547Z 19015KT 24/19 A3003 RMK A01 T02430192  RH  073%=      5-min Rain = 0
KOD1 261548Z 19018KT 24/19 A3003 RMK A01 T02440192  RH  073%=      5-min Rain = 0
KOD1 261549Z 19015KT 24/19 A3003 RMK A01 T02430192  RH  073%=      5-min Rain = 0
KOD1 261550Z 19014KT 24/19 A3003 RMK A01 T02420193  RH  074%=      5-min Rain = 0
KOD1 261551Z 18016KT 24/19 A3003 RMK A01 T02430193  RH  074%=      5-min Rain = 0
KOD1 261552Z 18014KT 24/19 A3003 RMK A01 T02430192  RH  073%=      5-min Rain = 0
KOD1 261553Z 19016KT 24/19 A3003 RMK A01 T02430191  RH  073%=      5-min Rain = 0
KOD1 261554Z 19015KT 24/19 A3003 RMK A01 T02430192  RH  073%=      5-min Rain = 0
KOD1 261555Z 19014KT 24/19 A3003 RMK A01 T02430193  RH  074%=      5-min Rain = 0
KOD1 261556Z 19016KT 24/19 A3003 RMK A01 T02430192  RH  073%=      5-min Rain = 0
KOD1 261557Z 18016KT 24/19 A3003 RMK A01 T02430190  RH  073%=      5-min Rain = 0
KOD1 261558Z 19017G22KT 24/19 A3003 RMK A01 T02420189  RH  072%=      5-min Rain = 0
KOD1 261559Z 20015KT 24/19 A3003 RMK A01 T02420190  RH  073%=      5-min Rain = 0
KOD1 261600Z 20016KT 24/19 A3003 RMK A01 T02410190  RH  073%=      5-min Rain = 0
KOD1 261601Z 19015KT 24/19 A3003 RMK A01 T02410190  RH  073%=      5-min Rain = 0
KOD1 261602Z 18010KT 24/19 A3004 RMK A01 T02410193  RH  074%=      5-min Rain = 0
KOD1 261603Z 19011KT 24/19 A3003 RMK A01 T02420193  RH  074%=      5-min Rain = 0
KOD1 261604Z 19009KT 24/20 A3004 RMK A01 T02430195  RH  075%=      5-min Rain = 0
KOD1 261605Z 18008KT 25/20 A3004 RMK A01 T02450199  RH  076%=      5-min Rain = 0
KOD1 261606Z 19009KT 25/20 A3004 RMK A01 T02460198  RH  075%=      5-min Rain = 0
KOD1 261607Z 18009G14KT 25/20 A3003 RMK A01 T02470199  RH  075%=      5-min Rain = 0
KOD1 261608Z 18014KT 25/20 A3003 RMK A01 T02470196  RH  073%=      5-min Rain = 0
KOD1 261609Z 18012KT 25/19 A3003 RMK A01 T02460192  RH  072%=      5-min Rain = 0
KOD1 261610Z 18011KT 25/19 A3003 RMK A01 T02450194  RH  073%=      5-min Rain = 0
KOD1 261611Z 19012KT 25/19 A3003 RMK A01 T02450193  RH  073%=      5-min Rain = 0
KOD1 261612Z 18013KT 25/19 A3003 RMK A01 T02450194  RH  073%=      5-min Rain = 0
KOD1 261613Z 19013KT 24/19 A3003 RMK A01 T02440192  RH  073%=      5-min Rain = 0
KOD1 261614Z 19014KT 24/19 A3003 RMK A01 T02430190  RH  073%=      5-min Rain = 0
KOD1 261615Z 19013KT 24/19 A3003 RMK A01 T02420190  RH  073%=      5-min Rain = 0
KOD1 261616Z 19012KT 24/19 A3003 RMK A01 T02420191  RH  073%=      5-min Rain = 0
KOD1 261617Z 19011KT 24/19 A3003 RMK A01 T02430193  RH  074%=      5-min Rain = 0
KOD1 261618Z 18013KT 24/19 A3003 RMK A01 T02430192  RH  073%=      5-min Rain = 0
KOD1 261619Z 18014KT 24/19 A3003 RMK A01 T02440192  RH  073%=      5-min Rain = 0
KOD1 261620Z 19013KT 24/19 A3003 RMK A01 T02440192  RH  073%=      5-min Rain = 0
KOD1 261621Z 19013KT 24/19 A3003 RMK A01 T02440191  RH  072%=      5-min Rain = 0
KOD1 261622Z 19013KT 24/19 A3003 RMK A01 T02430191  RH  072%=      5-min Rain = 0
KOD1 261623Z 19013KT 24/19 A3003 RMK A01 T02430192  RH  073%=      5-min Rain = 0
KOD1 261624Z 18016KT 24/19 A3003 RMK A01 T02430191  RH  073%=      5-min Rain = 0
KOD1 261625Z 17017KT 24/19 A3002 RMK A01 T02440191  RH  072%=      5-min Rain = 0
KOD1 261626Z 18016KT 25/19 A3002 RMK A01 T02450191  RH  072%=      5-min Rain = 0
KOD1 261627Z 18015KT 25/19 A3002 RMK A01 T02460194  RH  072%=      5-min Rain = 0
KOD1 261628Z 18013KT 25/19 A3002 RMK A01 T02480193  RH  071%=      5-min Rain = 0
KOD1 261629Z 18014G19KT 25/20 A3002 RMK A01 T02510195  RH  071%=      5-min Rain = 0
KOD1 261630Z 18017KT 25/19 A3002 RMK A01 T02510191  RH  069%=      5-min Rain = 0
KOD1 261631Z 17014KT 25/19 A3002 RMK A01 T02520194  RH  070%=      5-min Rain = 0
KOD1 261632Z 18017KT 25/20 A3002 RMK A01 T02530195  RH  070%=      5-min Rain = 0
KOD1 261633Z 18016KT 25/19 A3002 RMK A01 T02510190  RH  069%=      5-min Rain = 0
KOD1 261634Z 19016KT 25/19 A3002 RMK A01 T02500192  RH  070%=      5-min Rain = 0
KOD1 261635Z 18013KT 25/19 A3002 RMK A01 T02500193  RH  071%=      5-min Rain = 0
KOD1 261636Z 19014KT 25/19 A3002 RMK A01 T02510194  RH  071%=      5-min Rain = 0
KOD1 261637Z 19012KT 25/19 A3002 RMK A01 T02510194  RH  071%=      5-min Rain = 0
KOD1 261638Z 18014KT 25/19 A3002 RMK A01 T02510193  RH  070%=      5-min Rain = 0
KOD1 261639Z 17012KT 25/20 A3002 RMK A01 T02520196  RH  071%=      5-min Rain = 0
KOD1 261640Z 18011KT 25/20 A3002 RMK A01 T02530198  RH  072%=      5-min Rain = 0
KOD1 261641Z 17010KT 26/20 A3002 RMK A01 T02560201  RH  072%=      5-min Rain = 0
KOD1 261642Z 17012KT 26/20 A3002 RMK A01 T02560196  RH  069%=      5-min Rain = 0
KOD1 261643Z 17011KT 26/20 A3002 RMK A01 T02560197  RH  070%=      5-min Rain = 0
KOD1 261644Z 17014G19KT 26/20 A3002 RMK A01 T02560195  RH  069%=      5-min Rain = 0
KOD1 261645Z 16012KT 26/20 A3002 RMK A01 T02560196  RH  069%=      5-min Rain = 0
KOD1 261646Z 18014KT 26/20 A3002 RMK A01 T02570195  RH  069%=      5-min Rain = 0
KOD1 261647Z 19012KT 26/20 A3002 RMK A01 T02560196  RH  069%=      5-min Rain = 0
KOD1 261648Z 19013KT 26/20 A3002 RMK A01 T02560197  RH  070%=      5-min Rain = 0
KOD1 261649Z 18013KT 26/20 A3002 RMK A01 T02560197  RH  070%=      5-min Rain = 0
KOD1 261650Z 18012KT 26/20 A3002 RMK A01 T02570196  RH  069%=      5-min Rain = 0
KOD1 261651Z 18011KT 26/19 A3002 RMK A01 T02560194  RH  069%=      5-min Rain = 0
KOD1 261652Z 18010KT 26/19 A3002 RMK A01 T02560193  RH  068%=      5-min Rain = 0
KOD1 261653Z 17011KT 26/20 A3002 RMK A01 T02560197  RH  070%=      5-min Rain = 0
KOD1 261654Z 18012KT 26/20 A3002 RMK A01 T02590201  RH  070%=      5-min Rain = 0
KOD1 261655Z 18013KT 26/19 A3002 RMK A01 T02590194  RH  068%=      5-min Rain = 0
KOD1 261656Z 18014KT 26/19 A3002 RMK A01 T02580194  RH  068%=      5-min Rain = 0
KOD1 261657Z 18014KT 26/20 A3002 RMK A01 T02570195  RH  069%=      5-min Rain = 0
KOD1 261658Z 17013KT 26/20 A3002 RMK A01 T02560195  RH  069%=      5-min Rain = 0
KOD1 261659Z 19015KT 26/19 A3002 RMK A01 T02560194  RH  069%=      5-min Rain = 0
KOD1 261700Z 19014KT 26/19 A3002 RMK A01 T02560193  RH  068%=      5-min Rain = 0
KOD1 261701Z 18013KT 26/20 A3002 RMK A01 T02560195  RH  069%=      5-min Rain = 0
KOD1 261702Z 18016G21KT 26/19 A3002 RMK A01 T02580194  RH  068%=      5-min Rain = 0
KOD1 261703Z 18018KT 26/19 A3002 RMK A01 T02580193  RH  067%=      5-min Rain = 0
KOD1 261704Z 18016KT 26/19 A3002 RMK A01 T02570192  RH  067%=      5-min Rain = 0
KOD1 261705Z 17015KT 26/20 A3002 RMK A01 T02570195  RH  068%=      5-min Rain = 0
KOD1 261706Z 17015KT 26/19 A3002 RMK A01 T02580192  RH  067%=      5-min Rain = 0
KOD1 261707Z 17014KT 26/19 A3002 RMK A01 T02580193  RH  067%=      5-min Rain = 0
KOD1 261708Z 17014KT 26/19 A3002 RMK A01 T02580194  RH  068%=      5-min Rain = 0
KOD1 261709Z 17016KT 26/19 A3002 RMK A01 T02580191  RH  067%=      5-min Rain = 0
KOD1 261710Z 17012KT 26/19 A3002 RMK A01 T02570193  RH  068%=      5-min Rain = 0
KOD1 261711Z 18014KT 26/20 A3002 RMK A01 T02570195  RH  069%=      5-min Rain = 0
KOD1 261712Z 17012KT 26/19 A3001 RMK A01 T02570194  RH  068%=      5-min Rain = 0
KOD1 261713Z 15013KT 26/20 A3002 RMK A01 T02580199  RH  070%=      5-min Rain = 0
KOD1 261714Z 16013KT 26/20 A3002 RMK A01 T02580196  RH  069%=      5-min Rain = 0
KOD1 261715Z 16012KT 26/20 A3001 RMK A01 T02580195  RH  068%=      5-min Rain = 0
KOD1 261716Z 17011KT 26/20 A3001 RMK A01 T02580197  RH  069%=      5-min Rain = 0
KOD1 261717Z 17011KT 26/20 A3001 RMK A01 T02590197  RH  069%=      5-min Rain = 0
KOD1 261718Z 17009KT 26/20 A3001 RMK A01 T02590198  RH  069%=      5-min Rain = 0
KOD1 261719Z 16011KT 26/20 A3001 RMK A01 T02600199  RH  069%=      5-min Rain = 0
KOD1 261720Z 15015KT 26/20 A3001 RMK A01 T02630199  RH  068%=      5-min Rain = 0
KOD1 261721Z 16013KT 26/20 A3001 RMK A01 T02640195  RH  066%=      5-min Rain = 0
KOD1 261722Z 17012KT 27/20 A3001 RMK A01 T02650200  RH  067%=      5-min Rain = 0
KOD1 261723Z 18013KT 27/20 A3001 RMK A01 T02650197  RH  066%=      5-min Rain = 0
KOD1 261724Z 17013KT 27/20 A3001 RMK A01 T02650199  RH  067%=      5-min Rain = 0
KOD1 261725Z 16013KT 26/20 A3001 RMK A01 T02640195  RH  066%=      5-min Rain = 0
KOD1 261726Z 17010KT 26/20 A3002 RMK A01 T02630197  RH  067%=      5-min Rain = 0
KOD1 261727Z 17010KT 26/20 A3001 RMK A01 T02640198  RH  067%=      5-min Rain = 0
KOD1 261728Z 16011KT 26/20 A3001 RMK A01 T02640196  RH  066%=      5-min Rain = 0
KOD1 261729Z 15012KT 27/20 A3001 RMK A01 T02650200  RH  067%=      5-min Rain = 0
KOD1 261730Z 16015KT 27/20 A3001 RMK A01 T02680201  RH  067%=      5-min Rain = 0
KOD1 261731Z 16015KT 27/20 A3001 RMK A01 T02690197  RH  064%=      5-min Rain = 0
KOD1 261732Z 16014KT 27/20 A3002 RMK A01 T02690199  RH  065%=      5-min Rain = 0
KOD1 261733Z 15017KT 27/20 A3002 RMK A01 T02690198  RH  065%=      5-min Rain = 0
KOD1 261734Z 16018KT 27/20 A3002 RMK A01 T02680196  RH  065%=      5-min Rain = 0
KOD1 261735Z 16018KT 27/19 A3001 RMK A01 T02670194  RH  064%=      5-min Rain = 0
KOD1 261736Z 16017KT 27/20 A3001 RMK A01 T02660195  RH  065%=      5-min Rain = 0
KOD1 261737Z 16015KT 27/20 A3001 RMK A01 T02650195  RH  065%=      5-min Rain = 0
KOD1 261738Z 16014KT 27/20 A3001 RMK A01 T02680198  RH  066%=      5-min Rain = 0
KOD1 261739Z 16013KT 27/20 A3001 RMK A01 T02700200  RH  066%=      5-min Rain = 0
KOD1 261740Z 16013KT 27/20 A3001 RMK A01 T02710197  RH  064%=      5-min Rain = 0
KOD1 261741Z 16013KT 27/20 A3001 RMK A01 T02690198  RH  065%=      5-min Rain = 0
KOD1 261742Z 15015KT 27/20 A3001 RMK A01 T02680198  RH  066%=      5-min Rain = 0
KOD1 261743Z 14013KT 27/20 A3001 RMK A01 T02670197  RH  065%=      5-min Rain = 0
KOD1 261744Z 14013KT 27/20 A3001 RMK A01 T02680195  RH  065%=      5-min Rain = 0
KOD1 261745Z 14013KT 27/20 A3001 RMK A01 T02690197  RH  065%=      5-min Rain = 0
KOD1 261746Z 15015KT 27/20 A3001 RMK A01 T02700197  RH  064%=      5-min Rain = 0
KOD1 261747Z 15015KT 27/20 A3001 RMK A01 T02710199  RH  065%=      5-min Rain = 0
KOD1 261748Z 17014G19KT 27/20 A3001 RMK A01 T02720199  RH  065%=      5-min Rain = 0
KOD1 261749Z 17014KT 27/20 A3001 RMK A01 T02720196  RH  063%=      5-min Rain = 0
KOD1 261750Z 17011KT 27/20 A3001 RMK A01 T02690196  RH  064%=      5-min Rain = 0
KOD1 261751Z 17011G16KT 27/20 A3001 RMK A01 T02690201  RH  066%=      5-min Rain = 0
KOD1 261752Z 17016KT 27/20 A3001 RMK A01 T02700200  RH  065%=      5-min Rain = 0
KOD1 261753Z 16017KT 27/20 A3001 RMK A01 T02710199  RH  065%=      5-min Rain = 0
KOD1 261754Z 15019KT 27/20 A3001 RMK A01 T02700196  RH  064%=      5-min Rain = 0
KOD1 261755Z 16015KT 27/20 A3001 RMK A01 T02700198  RH  065%=      5-min Rain = 0
KOD1 261756Z 17014KT 27/20 A3001 RMK A01 T02710200  RH  065%=      5-min Rain = 0
KOD1 261757Z 17016KT 27/20 A3001 RMK A01 T02710195  RH  063%=      5-min Rain = 0
KOD1 261758Z 17016KT 27/19 A3001 RMK A01 T02700192  RH  063%=      5-min Rain = 0
KOD1 261759Z 17017KT 27/20 A3001 RMK A01 T02700195  RH  064%=      5-min Rain = 0
KOD1 261800Z 17015KT 27/20 A3001 RMK A01 T02700195  RH  064%=      5-min Rain = 0
KOD1 261801Z 17013KT 27/20 A3001 RMK A01 T02710198  RH  064%=      5-min Rain = 0
KOD1 261802Z 17015KT 27/20 A3001 RMK A01 T02720198  RH  064%=      5-min Rain = 0
KOD1 261803Z 16014KT 27/20 A3001 RMK A01 T02720201  RH  065%=      5-min Rain = 0
KOD1 261804Z 16013KT 27/20 A3001 RMK A01 T02740202  RH  065%=      5-min Rain = 0
KOD1 261805Z 15016KT 27/20 A3001 RMK A01 T02740199  RH  064%=      5-min Rain = 0
KOD1 261806Z 15015KT 27/20 A3001 RMK A01 T02730196  RH  063%=      5-min Rain = 0
KOD1 261807Z 15017KT 27/20 A3001 RMK A01 T02720196  RH  063%=      5-min Rain = 0
KOD1 261808Z 15016KT 27/20 A3001 RMK A01 T02730199  RH  064%=      5-min Rain = 0
KOD1 261809Z 16015KT 28/20 A3001 RMK A01 T02750198  RH  063%=      5-min Rain = 0
KOD1 261810Z 16014KT 27/20 A30 RMK A01 T02740198  RH  063%=      5-min Rain = 0
KOD1 261811Z 16013KT 28/20 A30 RMK A01 T02750199  RH  064%=      5-min Rain = 0
KOD1 261812Z 17013KT 28/20 A30 RMK A01 T02760201  RH  064%=      5-min Rain = 0
KOD1 261813Z 16013KT 28/20 A30 RMK A01 T02770204  RH  065%=      5-min Rain = 0
KOD1 261814Z 17014KT 28/20 A30 RMK A01 T02770203  RH  064%=      5-min Rain = 0
KOD1 261815Z 16015KT 28/20 A30 RMK A01 T02750202  RH  064%=      5-min Rain = 0
KOD1 261816Z 15015KT 27/20 A30 RMK A01 T02730197  RH  063%=      5-min Rain = 0
KOD1 261817Z 16012KT 27/20 A30 RMK A01 T02740204  RH  066%=      5-min Rain = 0
KOD1 261818Z 16011G16KT 28/21 A30 RMK A01 T02760205  RH  065%=      5-min Rain = 0
KOD1 261819Z 15014KT 28/20 A30 RMK A01 T02780204  RH  064%=      5-min Rain = 0
KOD1 261820Z 16015KT 28/20 A30 RMK A01 T02760198  RH  062%=      5-min Rain = 0
KOD1 261821Z 17014KT 27/20 A30 RMK A01 T02740198  RH  063%=      5-min Rain = 0
KOD1 261822Z 17016KT 27/20 A30 RMK A01 T02730199  RH  064%=      5-min Rain = 0
KOD1 261823Z 16013KT 27/20 A3001 RMK A01 T02730202  RH  065%=      5-min Rain = 0
KOD1 261824Z 16015KT 27/20 A3001 RMK A01 T02730201  RH  065%=      5-min Rain = 0
KOD1 261825Z 16016KT 27/20 A3001 RMK A01 T02730200  RH  064%=      5-min Rain = 0
KOD1 261826Z 17013KT 27/20 A30 RMK A01 T02710197  RH  064%=      5-min Rain = 0
KOD1 261827Z 17011KT 27/20 A30 RMK A01 T02700200  RH  065%=      5-min Rain = 0
KOD1 261828Z 17013KT 27/20 A30 RMK A01 T02700199  RH  065%=      5-min Rain = 0
KOD1 261829Z 17011KT 27/20 A30 RMK A01 T02700199  RH  065%=      5-min Rain = 0
KOD1 261830Z 16012KT 27/20 A30 RMK A01 T02700202  RH  066%=      5-min Rain = 0
KOD1 261831Z 15015KT 27/20 A30 RMK A01 T02710199  RH  065%=      5-min Rain = 0
KOD1 261832Z 15014KT 27/20 A30 RMK A01 T02700199  RH  065%=      5-min Rain = 0
KOD1 261833Z 16016KT 27/20 A30 RMK A01 T02700199  RH  065%=      5-min Rain = 0
KOD1 261834Z 16013KT 27/20 A30 RMK A01 T02700201  RH  066%=      5-min Rain = 0
KOD1 261835Z 17011KT 27/20 A30 RMK A01 T02700201  RH  066%=      5-min Rain = 0
KOD1 261836Z 16013KT 27/20 A30 RMK A01 T02700203  RH  067%=      5-min Rain = 0
KOD1 261837Z 16014KT 27/20 A30 RMK A01 T02700199  RH  065%=      5-min Rain = 0
KOD1 261838Z 16012G17KT 27/21 A30 RMK A01 T02700205  RH  067%=      5-min Rain = 0
KOD1 261839Z 16018KT 27/20 A30 RMK A01 T02700199  RH  065%=      5-min Rain = 0
KOD1 261840Z 16017G22KT 27/20 A30 RMK A01 T02690199  RH  065%=      5-min Rain = 0
KOD1 261841Z 17018KT 27/20 A30 RMK A01 T02680196  RH  065%=      5-min Rain = 0
KOD1 261842Z 16017KT 27/20 A30 RMK A01 T02670197  RH  065%=      5-min Rain = 0
KOD1 261843Z 16018KT 27/20 A30 RMK A01 T02670197  RH  066%=      5-min Rain = 0
KOD1 261844Z 16016KT 27/20 A30 RMK A01 T02670196  RH  065%=      5-min Rain = 0
KOD1 261845Z 17016KT 27/20 A30 RMK A01 T02660197  RH  066%=      5-min Rain = 0
KOD1 261846Z 16015KT 27/20 A30 RMK A01 T02660198  RH  066%=      5-min Rain = 0
KOD1 261847Z 16016KT 27/20 A30 RMK A01 T02670197  RH  066%=      5-min Rain = 0
KOD1 261848Z 16013KT 27/20 A30 RMK A01 T02670199  RH  066%=      5-min Rain = 0
KOD1 261849Z 16015KT 27/20 A30 RMK A01 T02680199  RH  066%=      5-min Rain = 0
KOD1 261850Z 17015KT 27/20 A30 RMK A01 T02680200  RH  066%=      5-min Rain = 0
KOD1 261851Z 17015KT 27/20 A2999 RMK A01 T02680196  RH  064%=      5-min Rain = 0
KOD1 261852Z 16014KT 27/20 A2999 RMK A01 T02690199  RH  065%=      5-min Rain = 0
KOD1 261853Z 16015KT 27/20 A2999 RMK A01 T02700200  RH  066%=      5-min Rain = 0
KOD1 261854Z 16015G22KT 27/20 A2999 RMK A01 T02700201  RH  066%=      5-min Rain = 0
KOD1 261855Z 17019KT 27/20 A2999 RMK A01 T02700197  RH  065%=      5-min Rain = 0
KOD1 261856Z 17015KT 27/20 A2999 RMK A01 T02690197  RH  065%=      5-min Rain = 0
KOD1 261857Z 15013KT 27/20 A2999 RMK A01 T02690200  RH  066%=      5-min Rain = 0
KOD1 261858Z 16014KT 27/20 A2999 RMK A01 T02690200  RH  066%=      5-min Rain = 0
KOD1 261859Z 16015KT 27/20 A2999 RMK A01 T02690197  RH  064%=      5-min Rain = 0
KOD1 261900Z 16016KT 27/20 A2999 RMK A01 T02690197  RH  065%=      5-min Rain = 0
KOD1 261901Z 15015KT 27/20 A2999 RMK A01 T02690197  RH  065%=      5-min Rain = 0
KOD1 261902Z 17013KT 27/20 A2999 RMK A01 T02700200  RH  066%=      5-min Rain = 0
KOD1 261903Z 16016KT 27/20 A2999 RMK A01 T02690197  RH  065%=      5-min Rain = 0
KOD1 261904Z 17015KT 27/20 A2999 RMK A01 T02690195  RH  064%=      5-min Rain = 0
KOD1 261905Z 16014KT 27/20 A2999 RMK A01 T02680196  RH  065%=      5-min Rain = 0
KOD1 261906Z 16013KT 27/20 A2999 RMK A01 T02680198  RH  065%=      5-min Rain = 0
KOD1 261907Z 15015KT 27/20 A2999 RMK A01 T02690198  RH  065%=      5-min Rain = 0
KOD1 261908Z 16016KT 27/20 A2999 RMK A01 T02700196  RH  064%=      5-min Rain = 0
KOD1 261909Z 17014KT 27/20 A2999 RMK A01 T02700198  RH  065%=      5-min Rain = 0
KOD1 261910Z 17017KT 27/20 A2999 RMK A01 T02700197  RH  064%=      5-min Rain = 0
KOD1 261911Z 17015KT 27/20 A2999 RMK A01 T02690197  RH  065%=      5-min Rain = 0
KOD1 261912Z 17015KT 27/20 A2999 RMK A01 T02680195  RH  064%=      5-min Rain = 0
KOD1 261913Z 17012KT 27/20 A2999 RMK A01 T02680197  RH  065%=      5-min Rain = 0
KOD1 261914Z 17012KT 27/20 A2999 RMK A01 T02680198  RH  066%=      5-min Rain = 0
KOD1 261915Z 16012KT 27/20 A2999 RMK A01 T02680201  RH  067%=      5-min Rain = 0
KOD1 261916Z 16011KT 27/20 A2999 RMK A01 T02690202  RH  066%=      5-min Rain = 0
KOD1 261917Z 16013KT 27/20 A2999 RMK A01 T02700203  RH  067%=      5-min Rain = 0
KOD1 261918Z 15016KT 27/20 A2999 RMK A01 T02700200  RH  066%=      5-min Rain = 0
KOD1 261919Z 16017KT 27/20 A2999 RMK A01 T02690197  RH  064%=      5-min Rain = 0
KOD1 261920Z 16017KT 27/20 A2999 RMK A01 T02690197  RH  065%=      5-min Rain = 0
KOD1 261921Z 17014KT 27/20 A2999 RMK A01 T02690198  RH  065%=      5-min Rain = 0
KOD1 261922Z 18013KT 27/20 A2999 RMK A01 T02690199  RH  065%=      5-min Rain = 0
KOD1 261923Z 16013KT 27/20 A2999 RMK A01 T02700200  RH  066%=      5-min Rain = 0
KOD1 261924Z 17011KT 27/20 A2999 RMK A01 T02700199  RH  065%=      5-min Rain = 0
KOD1 261925Z 16010KT 27/21 A2999 RMK A01 T02710205  RH  067%=      5-min Rain = 0
KOD1 261926Z 16012KT 27/20 A2999 RMK A01 T02730204  RH  066%=      5-min Rain = 0
KOD1 261927Z 16014KT 27/21 A2999 RMK A01 T02740205  RH  066%=      5-min Rain = 0
KOD1 261928Z 16016KT 28/20 A2999 RMK A01 T02750199  RH  063%=      5-min Rain = 0
KOD1 261929Z 16015KT 27/20 A2999 RMK A01 T02740198  RH  063%=      5-min Rain = 0
KOD1 261930Z 16017KT 27/20 A2998 RMK A01 T02740197  RH  063%=      5-min Rain = 0
KOD1 261931Z 16018KT 27/20 A2998 RMK A01 T02730198  RH  064%=      5-min Rain = 0
KOD1 261932Z 15015KT 27/20 A2998 RMK A01 T02730196  RH  063%=      5-min Rain = 0
KOD1 261933Z 16014KT 27/20 A2999 RMK A01 T02720198  RH  064%=      5-min Rain = 0
KOD1 261934Z 16015G20KT 27/20 A2999 RMK A01 T02720199  RH  064%=      5-min Rain = 0
KOD1 261935Z 16018KT 27/20 A2998 RMK A01 T02720195  RH  063%=      5-min Rain = 0
KOD1 261936Z 17016KT 27/20 A2998 RMK A01 T02710196  RH  064%=      5-min Rain = 0
KOD1 261937Z 18014KT 27/20 A2998 RMK A01 T02710197  RH  064%=      5-min Rain = 0
KOD1 261938Z 17014KT 27/20 A2998 RMK A01 T02710198  RH  064%=      5-min Rain = 0
KOD1 261939Z 17013KT 27/20 A2998 RMK A01 T02720199  RH  065%=      5-min Rain = 0
KOD1 261940Z 16013KT 27/20 A2998 RMK A01 T02720199  RH  064%=      5-min Rain = 0
KOD1 261941Z 17013KT 27/20 A2998 RMK A01 T02720200  RH  065%=      5-min Rain = 0
KOD1 261942Z 17016KT 27/20 A2998 RMK A01 T02720195  RH  063%=      5-min Rain = 0
KOD1 261943Z 17015KT 27/20 A2998 RMK A01 T02710196  RH  063%=      5-min Rain = 0
KOD1 261944Z 16013KT 27/20 A2998 RMK A01 T02710196  RH  063%=      5-min Rain = 0
KOD1 261945Z 16014KT 27/20 A2998 RMK A01 T02710196  RH  063%=      5-min Rain = 0
KOD1 261946Z 17016KT 27/20 A2998 RMK A01 T02720197  RH  063%=      5-min Rain = 0
KOD1 261947Z 17014KT 27/20 A2998 RMK A01 T02720197  RH  063%=      5-min Rain = 0
KOD1 261948Z 17015KT 27/20 A2998 RMK A01 T02720196  RH  063%=      5-min Rain = 0
KOD1 261949Z 17016KT 27/20 A2998 RMK A01 T02720196  RH  063%=      5-min Rain = 0
KOD1 261950Z 17017KT 27/20 A2998 RMK A01 T02720195  RH  063%=      5-min Rain = 0
KOD1 261951Z 16017KT 27/20 A2998 RMK A01 T02720197  RH  064%=      5-min Rain = 0
KOD1 261952Z 17016KT 27/20 A2998 RMK A01 T02720196  RH  063%=      5-min Rain = 0
KOD1 261953Z 17015KT 27/20 A2998 RMK A01 T02730196  RH  063%=      5-min Rain = 0
KOD1 261954Z 16014KT 27/20 A2998 RMK A01 T02730198  RH  064%=      5-min Rain = 0
KOD1 261955Z 17016KT 27/20 A2998 RMK A01 T02740199  RH  063%=      5-min Rain = 0
KOD1 261956Z 16016KT 28/20 A2998 RMK A01 T02750198  RH  063%=      5-min Rain = 0
KOD1 261957Z 17015KT 28/20 A2998 RMK A01 T02750197  RH  062%=      5-min Rain = 0
KOD1 261958Z 17014KT 28/20 A2997 RMK A01 T02760198  RH  063%=      5-min Rain = 0
KOD1 261959Z 17017KT 28/20 A2997 RMK A01 T02760197  RH  062%=      5-min Rain = 0
KOD1 262000Z 16016KT 28/19 A2997 RMK A01 T02750194  RH  061%=      5-min Rain = 0
KOD1 262001Z 16016KT 28/20 A2997 RMK A01 T02760196  RH  062%=      5-min Rain = 0
KOD1 262002Z 15012KT 28/20 A2997 RMK A01 T02760198  RH  062%=      5-min Rain = 0
KOD1 262003Z 16014KT 28/20 A2997 RMK A01 T02780199  RH  062%=      5-min Rain = 0
KOD1 262004Z 16014KT 28/20 A2997 RMK A01 T02780199  RH  062%=      5-min Rain = 0
KOD1 262005Z 17012KT 28/20 A2997 RMK A01 T02780202  RH  063%=      5-min Rain = 0
KOD1 262006Z 17014KT 28/20 A2997 RMK A01 T02770200  RH  063%=      5-min Rain = 0
KOD1 262007Z 17016KT 28/20 A2997 RMK A01 T02760197  RH  062%=      5-min Rain = 0
KOD1 262008Z 17015KT 28/20 A2997 RMK A01 T02750195  RH  062%=      5-min Rain = 0
KOD1 262009Z 17013KT 28/20 A2997 RMK A01 T02750199  RH  063%=      5-min Rain = 0
KOD1 262010Z 17017KT 28/20 A2997 RMK A01 T02750198  RH  063%=      5-min Rain = 0
KOD1 262011Z 16016KT 28/20 A2997 RMK A01 T02750198  RH  063%=      5-min Rain = 0
KOD1 262012Z 16013KT 28/20 A2997 RMK A01 T02750200  RH  064%=      5-min Rain = 0
KOD1 262013Z 16011KT 28/20 A2997 RMK A01 T02760204  RH  065%=      5-min Rain = 0
KOD1 262014Z 15014KT 28/20 A2997 RMK A01 T02760199  RH  063%=      5-min Rain = 0
KOD1 262015Z 15013KT 28/20 A2997 RMK A01 T02760198  RH  063%=      5-min Rain = 0
KOD1 262016Z 16012KT 28/20 A2997 RMK A01 T02760201  RH  064%=      5-min Rain = 0
KOD1 262017Z 15012KT 28/20 A2997 RMK A01 T02750200  RH  064%=      5-min Rain = 0
KOD1 262018Z 15014KT 27/20 A2997 RMK A01 T02740199  RH  064%=      5-min Rain = 0
KOD1 262019Z 15015KT 27/20 A2997 RMK A01 T02740195  RH  062%=      5-min Rain = 0
KOD1 262020Z 15016KT 27/20 A2997 RMK A01 T02740195  RH  062%=      5-min Rain = 0
KOD1 262021Z 16013KT 27/20 A2997 RMK A01 T02740197  RH  063%=      5-min Rain = 0
KOD1 262022Z 16010KT 27/20 A2997 RMK A01 T02740201  RH  064%=      5-min Rain = 0
KOD1 262023Z 16011KT 27/20 A2997 RMK A01 T02740203  RH  065%=      5-min Rain = 0
KOD1 262024Z 16013KT 28/20 A2997 RMK A01 T02750201  RH  064%=      5-min Rain = 0
KOD1 262025Z 17012KT 28/20 A2997 RMK A01 T02750198  RH  063%=      5-min Rain = 0
KOD1 262026Z 16014KT 28/20 A2997 RMK A01 T02750199  RH  063%=      5-min Rain = 0
KOD1 262027Z 15014KT 27/20 A2997 RMK A01 T02740197  RH  063%=      5-min Rain = 0
KOD1 262028Z 16015KT 27/20 A2997 RMK A01 T02740197  RH  063%=      5-min Rain = 0
KOD1 262029Z 16015KT 27/20 A2997 RMK A01 T02740196  RH  063%=      5-min Rain = 0
KOD1 262030Z 16016KT 27/19 A2997 RMK A01 T02730194  RH  062%=      5-min Rain = 0
KOD1 262031Z 16016KT 27/20 A2997 RMK A01 T02730196  RH  063%=      5-min Rain = 0
KOD1 262032Z 16015KT 27/20 A2997 RMK A01 T02730196  RH  063%=      5-min Rain = 0
KOD1 262033Z 16013KT 27/20 A2997 RMK A01 T02720196  RH  063%=      5-min Rain = 0
KOD1 262034Z 14015KT 27/20 A2997 RMK A01 T02720197  RH  063%=      5-min Rain = 0
KOD1 262035Z 15016G22KT 27/20 A2997 RMK A01 T02730196  RH  063%=      5-min Rain = 0
KOD1 262036Z 15018KT 27/20 A2997 RMK A01 T02730195  RH  062%=      5-min Rain = 0
KOD1 262037Z 15016KT 27/20 A2997 RMK A01 T02730196  RH  063%=      5-min Rain = 0
KOD1 262038Z 15014KT 27/20 A2997 RMK A01 T02730197  RH  063%=      5-min Rain = 0
KOD1 262039Z 15015KT 27/20 A2997 RMK A01 T02730198  RH  064%=      5-min Rain = 0
KOD1 262040Z 14014KT 27/20 A2997 RMK A01 T02730198  RH  064%=      5-min Rain = 0
KOD1 262041Z 15014KT 27/20 A2997 RMK A01 T02720197  RH  063%=      5-min Rain = 0
KOD1 262042Z 15014G19KT 27/20 A2997 RMK A01 T02720199  RH  064%=      5-min Rain = 0
KOD1 262043Z 15015KT 27/20 A2997 RMK A01 T02720198  RH  064%=      5-min Rain = 0
KOD1 262044Z 15013KT 27/20 A2997 RMK A01 T02720198  RH  064%=      5-min Rain = 0
KOD1 262045Z 15013KT 27/20 A2997 RMK A01 T02720198  RH  064%=      5-min Rain = 0
KOD1 262046Z 15016KT 27/20 A2997 RMK A01 T02720197  RH  063%=      5-min Rain = 0
KOD1 262047Z 15014KT 27/20 A2997 RMK A01 T02730197  RH  063%=      5-min Rain = 0
KOD1 262048Z 15015KT 27/20 A2997 RMK A01 T02730196  RH  063%=      5-min Rain = 0
KOD1 262049Z 15015KT 27/20 A2997 RMK A01 T02740197  RH  063%=      5-min Rain = 0
KOD1 262050Z 15015KT 27/20 A2997 RMK A01 T02740197  RH  063%=      5-min Rain = 0
KOD1 262051Z 15014KT 27/20 A2997 RMK A01 T02740198  RH  063%=      5-min Rain = 0
KOD1 262052Z 15013KT 28/20 A2997 RMK A01 T02750199  RH  063%=      5-min Rain = 0
KOD1 262053Z 15012G17KT 28/20 A2997 RMK A01 T02750201  RH  064%=      5-min Rain = 0
KOD1 262054Z 15015KT 28/20 A2997 RMK A01 T02750199  RH  063%=      5-min Rain = 0
KOD1 262055Z 15013KT 28/20 A2997 RMK A01 T02750198  RH  063%=      5-min Rain = 0
KOD1 262056Z 16016KT 28/20 A2997 RMK A01 T02750198  RH  063%=      5-min Rain = 0
KOD1 262057Z 15014KT 28/20 A2997 RMK A01 T02750198  RH  063%=      5-min Rain = 0
KOD1 262058Z 16012KT 28/20 A2996 RMK A01 T02760199  RH  063%=      5-min Rain = 0
KOD1 262059Z 15016KT 28/20 A2996 RMK A01 T02760198  RH  063%=      5-min Rain = 0
KOD1 262100Z 15015KT 28/20 A2996 RMK A01 T02760197  RH  062%=      5-min Rain = 0
KOD1 262101Z 15017KT 28/20 A2996 RMK A01 T02770197  RH  062%=      5-min Rain = 0
KOD1 262102Z 15017G23KT 28/20 A2996 RMK A01 T02770199  RH  062%=      5-min Rain = 0
KOD1 262103Z 16018G23KT 28/20 A2996 RMK A01 T02780197  RH  061%=      5-min Rain = 0
KOD1 262104Z 14016KT 28/20 A2996 RMK A01 T02780198  RH  062%=      5-min Rain = 0
KOD1 262105Z 15015KT 28/20 A2996 RMK A01 T02780197  RH  062%=      5-min Rain = 0
KOD1 262106Z 15016KT 28/20 A2996 RMK A01 T02780196  RH  061%=      5-min Rain = 0
KOD1 262107Z 15016G21KT 28/20 A2996 RMK A01 T02780197  RH  061%=      5-min Rain = 0
KOD1 262108Z 15016G21KT 28/20 A2996 RMK A01 T02770195  RH  061%=      5-min Rain = 0
KOD1 262109Z 16016KT 28/20 A2996 RMK A01 T02770195  RH  061%=      5-min Rain = 0
KOD1 262110Z 15017KT 28/20 A2996 RMK A01 T02760197  RH  062%=      5-min Rain = 0
KOD1 262111Z 15015KT 28/20 A2996 RMK A01 T02760198  RH  062%=      5-min Rain = 0
KOD1 262112Z 15015KT 28/20 A2996 RMK A01 T02770198  RH  062%=      5-min Rain = 0
KOD1 262113Z 14016KT 28/20 A2995 RMK A01 T02770197  RH  062%=      5-min Rain = 0
KOD1 262114Z 15013G18KT 28/20 A2995 RMK A01 T02770198  RH  062%=      5-min Rain = 0
KOD1 262115Z 15015KT 28/20 A2995 RMK A01 T02770198  RH  062%=      5-min Rain = 0
KOD1 262116Z 15014KT 28/20 A2995 RMK A01 T02770198  RH  062%=      5-min Rain = 0
KOD1 262117Z 15014KT 28/20 A2995 RMK A01 T02770197  RH  062%=      5-min Rain = 0
KOD1 262118Z 15015KT 28/20 A2995 RMK A01 T02770196  RH  061%=      5-min Rain = 0
KOD1 262119Z 15014KT 28/20 A2995 RMK A01 T02760196  RH  062%=      5-min Rain = 0
KOD1 262120Z 15013KT 28/20 A2995 RMK A01 T02760198  RH  062%=      5-min Rain = 0
KOD1 262121Z 15015KT 28/20 A2995 RMK A01 T02760196  RH  062%=      5-min Rain = 0
KOD1 262122Z 15015KT 28/20 A2995 RMK A01 T02760195  RH  061%=      5-min Rain = 0
KOD1 262123Z 15017KT 28/20 A2995 RMK A01 T02760196  RH  062%=      5-min Rain = 0
KOD1 262124Z 15014KT 28/20 A2995 RMK A01 T02760196  RH  062%=      5-min Rain = 0
KOD1 262125Z 15014KT 28/20 A2995 RMK A01 T02760198  RH  063%=      5-min Rain = 0
KOD1 262126Z 15016KT 28/20 A2995 RMK A01 T02750198  RH  063%=      5-min Rain = 0
KOD1 262127Z 15016KT 28/20 A2995 RMK A01 T02750196  RH  062%=      5-min Rain = 0
KOD1 262128Z 16017KT 27/20 A2995 RMK A01 T02740195  RH  062%=      5-min Rain = 0
KOD1 262129Z 16015KT 27/20 A2995 RMK A01 T02730195  RH  062%=      5-min Rain = 0
KOD1 262130Z 15013KT 27/20 A2995 RMK A01 T02730197  RH  063%=      5-min Rain = 0
KOD1 262131Z 14012KT 27/20 A2995 RMK A01 T02720197  RH  063%=      5-min Rain = 0
KOD1 262132Z 15012KT 27/20 A2995 RMK A01 T02720198  RH  064%=      5-min Rain = 0
KOD1 262133Z 15011KT 27/20 A2995 RMK A01 T02720199  RH  064%=      5-min Rain = 0
KOD1 262134Z 14012G17KT 27/20 A2995 RMK A01 T02710197  RH  064%=      5-min Rain = 0
KOD1 262135Z 14012KT 27/20 A2995 RMK A01 T02710196  RH  063%=      5-min Rain = 0
KOD1 262136Z 14011KT 27/20 A2995 RMK A01 T02710195  RH  063%=      5-min Rain = 0
KOD1 262137Z 15010KT 27/20 A2995 RMK A01 T02710197  RH  064%=      5-min Rain = 0
KOD1 262138Z 15010KT 27/20 A2995 RMK A01 T02710199  RH  065%=      5-min Rain = 0
KOD1 262139Z 15012KT 27/20 A2995 RMK A01 T02700197  RH  065%=      5-min Rain = 0
KOD1 262140Z 14013KT 27/19 A2995 RMK A01 T02700194  RH  063%=      5-min Rain = 0
KOD1 262141Z 15013KT 27/20 A2995 RMK A01 T02700195  RH  064%=      5-min Rain = 0
KOD1 262142Z 15014KT 27/19 A2995 RMK A01 T02690194  RH  064%=      5-min Rain = 0
KOD1 262143Z 15012KT 27/20 A2995 RMK A01 T02690195  RH  064%=      5-min Rain = 0
KOD1 262144Z 15011KT 27/20 A2995 RMK A01 T02680197  RH  065%=      5-min Rain = 0
KOD1 262145Z 15010KT 27/20 A2995 RMK A01 T02680198  RH  065%=      5-min Rain = 0
KOD1 262146Z 15010KT 27/20 A2994 RMK A01 T02670198  RH  066%=      5-min Rain = 0
KOD1 262147Z 15010KT 27/20 A2994 RMK A01 T02660198  RH  066%=      5-min Rain = 0
KOD1 262148Z 14008KT 27/20 A2994 RMK A01 T02660198  RH  066%=      5-min Rain = 0
KOD1 262149Z 15010KT 27/20 A2994 RMK A01 T02660198  RH  066%=      5-min Rain = 0
KOD1 262150Z 15009KT 27/20 A2994 RMK A01 T02660198  RH  066%=      5-min Rain = 0
KOD1 262151Z 15010KT 27/20 A2994 RMK A01 T02660199  RH  066%=      5-min Rain = 0
KOD1 262152Z 15010KT 27/20 A2994 RMK A01 T02660199  RH  067%=      5-min Rain = 0
KOD1 262153Z 15011KT 27/20 A2994 RMK A01 T02660198  RH  066%=      5-min Rain = 0
KOD1 262154Z 15012KT 27/20 A2994 RMK A01 T02670199  RH  066%=      5-min Rain = 0
KOD1 262155Z 15011KT 27/20 A2994 RMK A01 T02670199  RH  066%=      5-min Rain = 0
KOD1 262156Z 15012KT 27/20 A2994 RMK A01 T02670200  RH  067%=      5-min Rain = 0
KOD1 262157Z 15012KT 27/20 A2994 RMK A01 T02670198  RH  066%=      5-min Rain = 0
KOD1 262158Z 15011KT 27/20 A2994 RMK A01 T02680199  RH  066%=      5-min Rain = 0
KOD1 262159Z 15014KT 27/20 A2994 RMK A01 T02680198  RH  065%=      5-min Rain = 0
KOD1 262200Z 15012KT 27/20 A2994 RMK A01 T02680199  RH  066%=      5-min Rain = 0
KOD1 262201Z 16010KT 27/20 A2994 RMK A01 T02680200  RH  066%=      5-min Rain = 0
KOD1 262202Z 16013KT 27/20 A2994 RMK A01 T02670200  RH  066%=      5-min Rain = 0
KOD1 262203Z 16012KT 27/20 A2994 RMK A01 T02680197  RH  065%=      5-min Rain = 0
KOD1 262204Z 17010KT 27/20 A2994 RMK A01 T02680200  RH  066%=      5-min Rain = 0
KOD1 262205Z 17014KT 27/20 A2993 RMK A01 T02680198  RH  066%=      5-min Rain = 0
KOD1 262206Z 16013KT 27/20 A2993 RMK A01 T02680196  RH  065%=      5-min Rain = 0
KOD1 262207Z 17012KT 27/20 A2993 RMK A01 T02680197  RH  065%=      5-min Rain = 0
KOD1 262208Z 16010KT 27/20 A2993 RMK A01 T02680200  RH  066%=      5-min Rain = 0
KOD1 262209Z 16011KT 27/20 A2993 RMK A01 T02670200  RH  066%=      5-min Rain = 0
KOD1 262210Z 16012KT 27/20 A2994 RMK A01 T02670199  RH  066%=      5-min Rain = 0
KOD1 262211Z 16011KT 27/20 A2994 RMK A01 T02680199  RH  066%=      5-min Rain = 0
KOD1 262212Z 16011KT 27/20 A2994 RMK A01 T02680199  RH  066%=      5-min Rain = 0
KOD1 262213Z 16011KT 27/20 A2994 RMK A01 T02690199  RH  066%=      5-min Rain = 0
KOD1 262214Z 16013KT 27/20 A2994 RMK A01 T02690199  RH  066%=      5-min Rain = 0
KOD1 262215Z 17010KT 27/20 A2994 RMK A01 T02700199  RH  065%=      5-min Rain = 0
KOD1 262216Z 16011KT 27/20 A2994 RMK A01 T02700201  RH  066%=      5-min Rain = 0
KOD1 262217Z 17011KT 27/20 A2994 RMK A01 T02700199  RH  065%=      5-min Rain = 0
KOD1 262218Z 17013KT 27/20 A2994 RMK A01 T02710197  RH  064%=      5-min Rain = 0
KOD1 262219Z 17011KT 27/20 A2994 RMK A01 T02710200  RH  065%=      5-min Rain = 0
KOD1 262220Z 16011KT 27/20 A2994 RMK A01 T02710199  RH  065%=      5-min Rain = 0
KOD1 262221Z 16012KT 27/20 A2994 RMK A01 T02700200  RH  066%=      5-min Rain = 0
KOD1 262222Z 16010KT 27/20 A2994 RMK A01 T02710201  RH  066%=      5-min Rain = 0
KOD1 262223Z 17010KT 27/20 A2994 RMK A01 T02700201  RH  066%=      5-min Rain = 0
KOD1 262224Z 17011KT 27/20 A2994 RMK A01 T02710202  RH  066%=      5-min Rain = 0
KOD1 262225Z 17011KT 27/20 A2994 RMK A01 T02710200  RH  065%=      5-min Rain = 0
KOD1 262226Z 17010KT 27/20 A2994 RMK A01 T02720201  RH  065%=      5-min Rain = 0
KOD1 262227Z 17013KT 27/20 A2994 RMK A01 T02720202  RH  066%=      5-min Rain = 0
KOD1 262228Z 16012KT 27/20 A2994 RMK A01 T02720198  RH  064%=      5-min Rain = 0
KOD1 262229Z 16014KT 27/20 A2993 RMK A01 T02730197  RH  063%=      5-min Rain = 0
KOD1 262230Z 17014KT 27/20 A2993 RMK A01 T02740198  RH  063%=      5-min Rain = 0
KOD1 262231Z 17014G19KT 27/20 A2993 RMK A01 T02740200  RH  064%=      5-min Rain = 0
KOD1 262232Z 16016KT 27/20 A2993 RMK A01 T02740196  RH  062%=      5-min Rain = 0
KOD1 262233Z 16013KT 27/20 A2993 RMK A01 T02740199  RH  063%=      5-min Rain = 0
KOD1 262234Z 16014KT 27/20 A2993 RMK A01 T02740199  RH  063%=      5-min Rain = 0
KOD1 262235Z 16013KT 28/20 A2993 RMK A01 T02750200  RH  064%=      5-min Rain = 0
KOD1 262236Z 17013KT 28/20 A2993 RMK A01 T02750200  RH  064%=      5-min Rain = 0
KOD1 262237Z 17014KT 28/20 A2993 RMK A01 T02750198  RH  063%=      5-min Rain = 0
KOD1 262238Z 17011G16KT 28/20 A2993 RMK A01 T02750199  RH  063%=      5-min Rain = 0
KOD1 262239Z 17011KT 28/20 A2993 RMK A01 T02750201  RH  064%=      5-min Rain = 0
KOD1 262240Z 17012KT 28/20 A2993 RMK A01 T02750202  RH  064%=      5-min Rain = 0
KOD1 262241Z 16012KT 28/20 A2993 RMK A01 T02760201  RH  064%=      5-min Rain = 0
KOD1 262242Z 16013KT 28/20 A2993 RMK A01 T02760201  RH  064%=      5-min Rain = 0
KOD1 262243Z 16014KT 28/20 A2993 RMK A01 T02760200  RH  063%=      5-min Rain = 0
KOD1 262244Z 16013KT 28/20 A2993 RMK A01 T02760200  RH  064%=      5-min Rain = 0
KOD1 262245Z 16012KT 28/20 A2993 RMK A01 T02750201  RH  064%=      5-min Rain = 0
KOD1 262246Z 16012KT 28/20 A2993 RMK A01 T02750202  RH  064%=      5-min Rain = 0
KOD1 262247Z 16013KT 28/20 A2993 RMK A01 T02750201  RH  064%=      5-min Rain = 0
KOD1 262248Z 15013KT 27/20 A2993 RMK A01 T02740201  RH  064%=      5-min Rain = 0
KOD1 262249Z 17013KT 27/20 A2993 RMK A01 T02740200  RH  064%=      5-min Rain = 0
KOD1 262250Z 16012KT 27/20 A2993 RMK A01 T02740201  RH  064%=      5-min Rain = 0
KOD1 262251Z 17012KT 27/20 A2993 RMK A01 T02740201  RH  064%=      5-min Rain = 0
KOD1 262252Z 17015KT 27/20 A2993 RMK A01 T02740199  RH  064%=      5-min Rain = 0
KOD1 262253Z 16011KT 28/20 A2993 RMK A01 T02750202  RH  064%=      5-min Rain = 0
KOD1 262254Z 17010G15KT 27/20 A2993 RMK A01 T02740204  RH  065%=      5-min Rain = 0
KOD1 262255Z 16013KT 27/20 A2993 RMK A01 T02740202  RH  064%=      5-min Rain = 0
KOD1 262256Z 16014KT 28/20 A2993 RMK A01 T02750200  RH  064%=      5-min Rain = 0
KOD1 262257Z 16015KT 28/20 A2993 RMK A01 T02750200  RH  064%=      5-min Rain = 0
KOD1 262258Z 16012KT 28/20 A2993 RMK A01 T02750201  RH  064%=      5-min Rain = 0
KOD1 262259Z 17014KT 28/20 A2993 RMK A01 T02750200  RH  064%=      5-min Rain = 0
KOD1 262300Z 17013KT 28/20 A2993 RMK A01 T02750200  RH  063%=      5-min Rain = 0
KOD1 262301Z 17015KT 28/20 A2993 RMK A01 T02750202  RH  064%=      5-min Rain = 0
KOD1 262302Z 17016KT 27/20 A2993 RMK A01 T02740197  RH  063%=      5-min Rain = 0
KOD1 262303Z 17014KT 27/20 A2993 RMK A01 T02740198  RH  063%=      5-min Rain = 0
KOD1 262304Z 16015KT 27/20 A2993 RMK A01 T02740198  RH  063%=      5-min Rain = 0
KOD1 262305Z 17013KT 27/20 A2993 RMK A01 T02730199  RH  064%=      5-min Rain = 0
KOD1 262306Z 17013KT 27/20 A2993 RMK A01 T02730198  RH  063%=      5-min Rain = 0
KOD1 262307Z 17012KT 27/20 A2993 RMK A01 T02730198  RH  064%=      5-min Rain = 0
KOD1 262308Z 16013KT 27/20 A2993 RMK A01 T02720198  RH  064%=      5-min Rain = 0
KOD1 262309Z 17013KT 27/20 A2993 RMK A01 T02710199  RH  065%=      5-min Rain = 0
KOD1 262310Z 17013KT 27/20 A2993 RMK A01 T02710198  RH  064%=      5-min Rain = 0
KOD1 262311Z 17012KT 27/20 A2993 RMK A01 T02710199  RH  065%=      5-min Rain = 0
KOD1 262312Z 17012KT 27/20 A2993 RMK A01 T02710199  RH  065%=      5-min Rain = 0
KOD1 262313Z 17011KT 27/20 A2993 RMK A01 T02710199  RH  065%=      5-min Rain = 0
KOD1 262314Z 16012KT 27/20 A2993 RMK A01 T02710198  RH  064%=      5-min Rain = 0
KOD1 262315Z 17014KT 27/20 A2993 RMK A01 T02720199  RH  064%=      5-min Rain = 0
KOD1 262316Z 17012KT 27/20 A2993 RMK A01 T02720199  RH  064%=      5-min Rain = 0
KOD1 262317Z 17010KT 27/20 A2993 RMK A01 T02720202  RH  066%=      5-min Rain = 0
KOD1 262318Z 17013KT 27/20 A2993 RMK A01 T02710200  RH  065%=      5-min Rain = 0
KOD1 262319Z 17011KT 27/20 A2993 RMK A01 T02720199  RH  064%=      5-min Rain = 0
KOD1 262320Z 17012KT 27/20 A2993 RMK A01 T02720200  RH  065%=      5-min Rain = 0
KOD1 262321Z 17013KT 27/20 A2993 RMK A01 T02720200  RH  065%=      5-min Rain = 0
KOD1 262322Z 17013KT 27/20 A2992 RMK A01 T02720200  RH  065%=      5-min Rain = 0
KOD1 262323Z 17011KT 27/20 A2992 RMK A01 T02710199  RH  065%=      5-min Rain = 0
KOD1 262324Z 16011KT 27/20 A2992 RMK A01 T02720201  RH  065%=      5-min Rain = 0
KOD1 262325Z 16012KT 27/20 A2992 RMK A01 T02720201  RH  065%=      5-min Rain = 0
KOD1 262326Z 16010KT 27/20 A2992 RMK A01 T02720201  RH  065%=      5-min Rain = 0
KOD1 262327Z 16012KT 27/20 A2992 RMK A01 T02720202  RH  065%=      5-min Rain = 0
KOD1 262328Z 16012KT 27/20 A2992 RMK A01 T02720202  RH  065%=      5-min Rain = 0
KOD1 262329Z 16014KT 27/20 A2992 RMK A01 T02720202  RH  065%=      5-min Rain = 0
KOD1 262330Z 17013KT 27/20 A2992 RMK A01 T02720198  RH  064%=      5-min Rain = 0
KOD1 262331Z 16010KT 27/20 A2992 RMK A01 T02720201  RH  065%=      5-min Rain = 0
KOD1 262332Z 16010KT 27/20 A2992 RMK A01 T02720203  RH  066%=      5-min Rain = 0
KOD1 262333Z 16011KT 27/20 A2992 RMK A01 T02710202  RH  066%=      5-min Rain = 0
KOD1 262334Z 16011KT 27/20 A2992 RMK A01 T02710200  RH  065%=      5-min Rain = 0
KOD1 262335Z 16010KT 27/20 A2992 RMK A01 T02710203  RH  066%=      5-min Rain = 0
KOD1 262336Z 16010KT 27/20 A2992 RMK A01 T02700203  RH  067%=      5-min Rain = 0
KOD1 262337Z 16012KT 27/20 A2991 RMK A01 T02700200  RH  065%=      5-min Rain = 0
KOD1 262338Z 17010KT 27/20 A2991 RMK A01 T02710203  RH  066%=      5-min Rain = 0
KOD1 262339Z 16011KT 27/20 A2991 RMK A01 T02700201  RH  066%=      5-min Rain = 0
KOD1 262340Z 16010KT 27/20 A2991 RMK A01 T02700201  RH  066%=      5-min Rain = 0
KOD1 262341Z 16010KT 27/20 A2991 RMK A01 T02700202  RH  066%=      5-min Rain = 0
KOD1 262342Z 16011KT 27/20 A2991 RMK A01 T02700201  RH  066%=      5-min Rain = 0
KOD1 262343Z 16013KT 27/20 A2991 RMK A01 T02700200  RH  066%=      5-min Rain = 0
KOD1 262344Z 16012KT 27/20 A2991 RMK A01 T02700199  RH  065%=      5-min Rain = 0
KOD1 262345Z 16011KT 27/20 A2991 RMK A01 T02700202  RH  066%=      5-min Rain = 0
KOD1 262346Z 16012KT 27/20 A2991 RMK A01 T02690201  RH  066%=      5-min Rain = 0
KOD1 262347Z 16010KT 27/20 A2991 RMK A01 T02690201  RH  066%=      5-min Rain = 0
KOD1 262348Z 16010KT 27/20 A2991 RMK A01 T02690202  RH  067%=      5-min Rain = 0
KOD1 262349Z 16010KT 27/20 A2991 RMK A01 T02680202  RH  067%=      5-min Rain = 0
KOD1 262350Z 16011KT 27/20 A299 RMK A01 T02690202  RH  067%=      5-min Rain = 0
KOD1 262351Z 15012KT 27/20 A299 RMK A01 T02690200  RH  066%=      5-min Rain = 0
KOD1 262352Z 15009KT 27/20 A299 RMK A01 T02690202  RH  067%=      5-min Rain = 0
KOD1 262353Z 16010KT 27/20 A299 RMK A01 T02690202  RH  067%=      5-min Rain = 0
KOD1 262354Z 15011KT 27/20 A299 RMK A01 T02690201  RH  066%=      5-min Rain = 0
KOD1 262355Z 15010KT 27/20 A299 RMK A01 T02700202  RH  066%=      5-min Rain = 0
KOD1 262356Z 15008KT 27/20 A299 RMK A01 T02700204  RH  067%=      5-min Rain = 0
KOD1 262357Z 15009KT 27/20 A299 RMK A01 T02690203  RH  067%=      5-min Rain = 0
KOD1 262358Z 16008KT 27/21 A299 RMK A01 T02690205  RH  068%=      5-min Rain = 0
KOD1 262359Z 15010KT 27/20 A299 RMK A01 T02680203  RH  067%=      5-min Rain = 0
KOD1 270000Z 15010KT 27/20 A299 RMK A01 T02690202  RH  067%=      5-min Rain = 0
KOD1 270001Z 15009KT 27/20 A299 RMK A01 T02690202  RH  067%=      5-min Rain = 0
KOD1 270002Z 15009KT 27/20 A299 RMK A01 T02690204  RH  068%=      5-min Rain = 0
KOD1 270003Z 15008KT 27/20 A299 RMK A01 T02690204  RH  068%=      5-min Rain = 0
KOD1 270004Z 15009KT 27/21 A299 RMK A01 T02680205  RH  068%=      5-min Rain = 0
KOD1 270005Z 15009KT 27/20 A299 RMK A01 T02690204  RH  068%=      5-min Rain = 0
KOD1 270006Z 15009KT 27/21 A299 RMK A01 T02680205  RH  068%=      5-min Rain = 0
KOD1 270007Z 15009KT 27/20 A299 RMK A01 T02680204  RH  068%=      5-min Rain = 0
KOD1 270008Z 15009KT 27/20 A299 RMK A01 T02680204  RH  068%=      5-min Rain = 0
KOD1 270009Z 14010KT 27/20 A299 RMK A01 T02680202  RH  067%=      5-min Rain = 0
KOD1 270010Z 15010KT 27/20 A299 RMK A01 T02690201  RH  066%=      5-min Rain = 0
KOD1 270011Z 14009KT 27/20 A299 RMK A01 T02680202  RH  067%=      5-min Rain = 0
KOD1 270012Z 14008KT 27/20 A299 RMK A01 T02680203  RH  067%=      5-min Rain = 0
KOD1 270013Z 14008KT 27/20 A2989 RMK A01 T02680203  RH  067%=      5-min Rain = 0
KOD1 270014Z 14008KT 27/20 A2989 RMK A01 T02680203  RH  068%=      5-min Rain = 0
KOD1 270015Z 14008KT 27/20 A2989 RMK A01 T02670202  RH  068%=      5-min Rain = 0
KOD1 270016Z 14008KT 27/20 A2989 RMK A01 T02670203  RH  068%=      5-min Rain = 0
KOD1 270017Z 14008KT 27/20 A2989 RMK A01 T02670204  RH  068%=      5-min Rain = 0
KOD1 270018Z 14008KT 27/20 A2989 RMK A01 T02670202  RH  068%=      5-min Rain = 0
KOD1 270019Z 14009KT 27/20 A2989 RMK A01 T02670202  RH  068%=      5-min Rain = 0
KOD1 270020Z 14009KT 27/20 A2989 RMK A01 T02670202  RH  068%=      5-min Rain = 0
KOD1 270021Z 14009KT 27/20 A2989 RMK A01 T02670203  RH  068%=      5-min Rain = 0
KOD1 270022Z 13008KT 27/20 A2989 RMK A01 T02670203  RH  068%=      5-min Rain = 0
KOD1 270023Z 14009KT 27/20 A2989 RMK A01 T02660203  RH  068%=      5-min Rain = 0
KOD1 270024Z 14009KT 27/20 A2989 RMK A01 T02670202  RH  068%=      5-min Rain = 0
KOD1 270025Z 13010KT 27/20 A2989 RMK A01 T02660202  RH  068%=      5-min Rain = 0
KOD1 270026Z 13009KT 27/20 A2989 RMK A01 T02660203  RH  068%=      5-min Rain = 0
KOD1 270027Z 14009KT 27/20 A2988 RMK A01 T02660203  RH  068%=      5-min Rain = 0
KOD1 270028Z 13009KT 27/20 A2988 RMK A01 T02660204  RH  069%=      5-min Rain = 0
KOD1 270029Z 14009KT 27/20 A2988 RMK A01 T02650203  RH  069%=      5-min Rain = 0
KOD1 270030Z 13009KT 26/20 A2988 RMK A01 T02640204  RH  069%=      5-min Rain = 0
KOD1 270031Z 13011KT 26/20 A2988 RMK A01 T02640201  RH  068%=      5-min Rain = 0
KOD1 270032Z 13010KT 26/20 A2988 RMK A01 T02640201  RH  068%=      5-min Rain = 0
KOD1 270033Z 13010KT 26/20 A2988 RMK A01 T02640202  RH  069%=      5-min Rain = 0
KOD1 270034Z 14010KT 26/20 A2988 RMK A01 T02640202  RH  069%=      5-min Rain = 0
KOD1 270035Z 13012KT 26/20 A2988 RMK A01 T02640201  RH  068%=      5-min Rain = 0
KOD1 270036Z 14011KT 26/20 A2987 RMK A01 T02640201  RH  068%=      5-min Rain = 0
KOD1 270037Z 13011KT 26/20 A2987 RMK A01 T02640201  RH  068%=      5-min Rain = 0
KOD1 270038Z 13011KT 26/20 A2987 RMK A01 T02640201  RH  068%=      5-min Rain = 0
KOD1 270039Z 13010KT 26/20 A2987 RMK A01 T02640201  RH  068%=      5-min Rain = 0
KOD1 270040Z 13010KT 26/20 A2987 RMK A01 T02630201  RH  069%=      5-min Rain = 0
KOD1 270041Z 13011KT 26/20 A2987 RMK A01 T02630201  RH  069%=      5-min Rain = 0
KOD1 270042Z 13012KT 26/20 A2987 RMK A01 T02630200  RH  068%=      5-min Rain = 0
KOD1 270043Z 14012KT 26/20 A2987 RMK A01 T02630201  RH  069%=      5-min Rain = 0
KOD1 270044Z 13011KT 26/20 A2987 RMK A01 T02630201  RH  069%=      5-min Rain = 0
KOD1 270045Z 13011KT 26/20 A2987 RMK A01 T02620200  RH  068%=      5-min Rain = 0
KOD1 270046Z 13010KT 26/20 A2987 RMK A01 T02630200  RH  069%=      5-min Rain = 0
KOD1 270047Z 14011KT 26/20 A2987 RMK A01 T02620200  RH  069%=      5-min Rain = 0
KOD1 270048Z 14010KT 26/20 A2987 RMK A01 T02620201  RH  069%=      5-min Rain = 0
KOD1 270049Z 14010KT 26/20 A2987 RMK A01 T02620200  RH  069%=      5-min Rain = 0
KOD1 270050Z 13010KT 26/20 A2987 RMK A01 T02610201  RH  069%=      5-min Rain = 0
KOD1 270051Z 13009KT 26/20 A2987 RMK A01 T02610201  RH  069%=      5-min Rain = 0
KOD1 270052Z 14009KT 26/20 A2987 RMK A01 T02610201  RH  070%=      5-min Rain = 0
KOD1 270053Z 13011KT 26/20 A2987 RMK A01 T02600200  RH  070%=      5-min Rain = 0
KOD1 270054Z 14010KT 26/20 A2987 RMK A01 T02610199  RH  069%=      5-min Rain = 0
KOD1 270055Z 14009KT 26/20 A2987 RMK A01 T02610200  RH  069%=      5-min Rain = 0
KOD1 270056Z 13007KT 26/20 A2987 RMK A01 T02610201  RH  069%=      5-min Rain = 0
KOD1 270057Z 14009KT 26/20 A2987 RMK A01 T02600200  RH  070%=      5-min Rain = 0
KOD1 270058Z 13008KT 26/20 A2987 RMK A01 T02600201  RH  070%=      5-min Rain = 0
KOD1 270059Z 13009KT 26/20 A2987 RMK A01 T02590200  RH  070%=      5-min Rain = 0
KOD1 270100Z 13009KT 26/20 A2987 RMK A01 T02590200  RH  070%=      5-min Rain = 0
KOD1 270101Z 13009KT 26/20 A2987 RMK A01 T02590200  RH  070%=      5-min Rain = 0
KOD1 270102Z 13009KT 26/20 A2987 RMK A01 T02600199  RH  069%=      5-min Rain = 0
KOD1 270103Z 13008KT 26/20 A2987 RMK A01 T02600201  RH  070%=      5-min Rain = 0
KOD1 270104Z 13010KT 26/20 A2987 RMK A01 T02590200  RH  070%=      5-min Rain = 0
KOD1 270105Z 13008KT 26/20 A2987 RMK A01 T02590200  RH  070%=      5-min Rain = 0
KOD1 270106Z 13006KT 26/20 A2987 RMK A01 T02580202  RH  071%=      5-min Rain = 0
KOD1 270107Z 14010KT 26/20 A2987 RMK A01 T02570201  RH  071%=      5-min Rain = 0
KOD1 270108Z 13009KT 26/20 A2987 RMK A01 T02580201  RH  071%=      5-min Rain = 0
KOD1 270109Z 13008KT 26/20 A2987 RMK A01 T02580201  RH  071%=      5-min Rain = 0
KOD1 270110Z 14008KT 26/20 A2987 RMK A01 T02580202  RH  071%=      5-min Rain = 0
KOD1 270111Z 14011KT 26/20 A2987 RMK A01 T02570201  RH  071%=      5-min Rain = 0
KOD1 270112Z 13010KT 26/20 A2987 RMK A01 T02570200  RH  071%=      5-min Rain = 0
KOD1 270113Z 14009KT 26/20 A2987 RMK A01 T02570201  RH  071%=      5-min Rain = 0
KOD1 270114Z 14011KT 26/20 A2987 RMK A01 T02570200  RH  071%=      5-min Rain = 0
KOD1 270115Z 14011KT 26/20 A2987 RMK A01 T02570200  RH  071%=      5-min Rain = 0
KOD1 270116Z 14010KT 26/20 A2987 RMK A01 T02580200  RH  070%=      5-min Rain = 0
KOD1 270117Z 14010KT 26/20 A2988 RMK A01 T02580200  RH  070%=      5-min Rain = 0
KOD1 270118Z 14011KT 26/20 A2988 RMK A01 T02580200  RH  070%=      5-min Rain = 0
KOD1 270119Z 14011KT 26/20 A2988 RMK A01 T02580199  RH  070%=      5-min Rain = 0
KOD1 270120Z 14012KT 26/20 A2987 RMK A01 T02580199  RH  070%=      5-min Rain = 0
KOD1 270121Z 13011KT 26/20 A2987 RMK A01 T02580199  RH  070%=      5-min Rain = 0
KOD1 270122Z 13011KT 26/20 A2987 RMK A01 T02580199  RH  070%=      5-min Rain = 0
KOD1 270123Z 13011KT 26/20 A2987 RMK A01 T02580199  RH  070%=      5-min Rain = 0
KOD1 270124Z 13014KT 26/20 A2987 RMK A01 T02570198  RH  070%=      5-min Rain = 0
KOD1 270125Z 13013KT 26/20 A2986 RMK A01 T02580198  RH  069%=      5-min Rain = 0
KOD1 270126Z 13012KT 26/20 A2986 RMK A01 T02580198  RH  069%=      5-min Rain = 0
KOD1 270127Z 13012KT 26/20 A2986 RMK A01 T02580198  RH  069%=      5-min Rain = 0
KOD1 270128Z 13011KT 26/20 A2986 RMK A01 T02580198  RH  069%=      5-min Rain = 0
KOD1 270129Z 13010KT 26/20 A2986 RMK A01 T02570198  RH  070%=      5-min Rain = 0
KOD1 270130Z 13011KT 26/20 A2986 RMK A01 T02570198  RH  070%=      5-min Rain = 0
KOD1 270131Z 13013KT 26/20 A2986 RMK A01 T02570197  RH  069%=      5-min Rain = 0
KOD1 270132Z 13012KT 26/20 A2986 RMK A01 T02570197  RH  069%=      5-min Rain = 0
KOD1 270133Z 13012KT 26/20 A2986 RMK A01 T02570197  RH  070%=      5-min Rain = 0
KOD1 270134Z 14012KT 26/20 A2986 RMK A01 T02570197  RH  070%=      5-min Rain = 0
KOD1 270135Z 13010KT 26/20 A2987 RMK A01 T02560197  RH  070%=      5-min Rain = 0
KOD1 270136Z 13010KT 26/20 A2987 RMK A01 T02560197  RH  070%=      5-min Rain = 0
KOD1 270137Z 14011KT 26/20 A2987 RMK A01 T02550197  RH  070%=      5-min Rain = 0
KOD1 270138Z 13012KT 26/20 A2987 RMK A01 T02550197  RH  070%=      5-min Rain = 0
KOD1 270139Z 13011KT 26/20 A2987 RMK A01 T02550196  RH  070%=      5-min Rain = 0
KOD1 270140Z 13011KT 26/20 A2986 RMK A01 T02560197  RH  070%=      5-min Rain = 0
KOD1 270141Z 13010KT 26/20 A2986 RMK A01 T02550197  RH  070%=      5-min Rain = 0
KOD1 270142Z 13009KT 26/20 A2986 RMK A01 T02550197  RH  070%=      5-min Rain = 0
KOD1 270143Z 13010KT 25/20 A2986 RMK A01 T02540197  RH  071%=      5-min Rain = 0
KOD1 270144Z 13009KT 25/20 A2986 RMK A01 T02540197  RH  071%=      5-min Rain = 0
KOD1 270145Z 13009KT 25/20 A2986 RMK A01 T02540197  RH  071%=      5-min Rain = 0
KOD1 270146Z 13010KT 25/20 A2986 RMK A01 T02530198  RH  071%=      5-min Rain = 0
KOD1 270147Z 13010KT 25/20 A2986 RMK A01 T02530197  RH  071%=      5-min Rain = 0
KOD1 270148Z 13011KT 25/20 A2986 RMK A01 T02540197  RH  071%=      5-min Rain = 0
KOD1 270149Z 13010KT 25/20 A2986 RMK A01 T02540197  RH  071%=      5-min Rain = 0
KOD1 270150Z 13010KT 25/20 A2986 RMK A01 T02530198  RH  071%=      5-min Rain = 0
KOD1 270151Z 13009KT 25/20 A2986 RMK A01 T02530198  RH  072%=      5-min Rain = 0
KOD1 270152Z 13012KT 25/20 A2986 RMK A01 T02520198  RH  072%=      5-min Rain = 0
KOD1 270153Z 14010KT 25/20 A2986 RMK A01 T02520197  RH  072%=      5-min Rain = 0
KOD1 270154Z 14012KT 25/20 A2986 RMK A01 T02520198  RH  072%=      5-min Rain = 0
KOD1 270155Z 14011KT 25/20 A2986 RMK A01 T02520198  RH  072%=      5-min Rain = 0
KOD1 270156Z 13014KT 25/20 A2986 RMK A01 T02520197  RH  072%=      5-min Rain = 0
KOD1 270157Z 14012KT 25/20 A2986 RMK A01 T02530198  RH  072%=      5-min Rain = 0
KOD1 270158Z 13011KT 25/20 A2986 RMK A01 T02520198  RH  072%=      5-min Rain = 0
KOD1 270159Z 13011KT 25/20 A2986 RMK A01 T02510198  RH  072%=      5-min Rain = 0
KOD1 270200Z 13010KT 25/20 A2986 RMK A01 T02500198  RH  073%=      5-min Rain = 0
KOD1 270201Z 13011KT 25/20 A2986 RMK A01 T02500198  RH  073%=      5-min Rain = 0
KOD1 270202Z 13011KT 25/20 A2986 RMK A01 T02500198  RH  073%=      5-min Rain = 0
KOD1 270203Z 13010KT 25/20 A2986 RMK A01 T02500198  RH  073%=      5-min Rain = 0
KOD1 270204Z 13012KT 25/20 A2986 RMK A01 T02500198  RH  073%=      5-min Rain = 0
KOD1 270205Z 13011KT 25/20 A2986 RMK A01 T02500198  RH  073%=      5-min Rain = 0
KOD1 270206Z 13012KT 25/20 A2986 RMK A01 T02500197  RH  072%=      5-min Rain = 0
KOD1 270207Z 13013G18KT 25/20 A2986 RMK A01 T02500197  RH  072%=      5-min Rain = 0
KOD1 270208Z 13013KT 25/20 A2985 RMK A01 T02510197  RH  072%=      5-min Rain = 0
KOD1 270209Z 13012KT 25/20 A2985 RMK A01 T02510197  RH  072%=      5-min Rain = 0
KOD1 270210Z 13011KT 25/20 A2985 RMK A01 T02500197  RH  072%=      5-min Rain = 0
KOD1 270211Z 13011KT 25/20 A2985 RMK A01 T02500197  RH  072%=      5-min Rain = 0
KOD1 270212Z 13012KT 25/20 A2985 RMK A01 T02500197  RH  072%=      5-min Rain = 0
KOD1 270213Z 13013KT 25/20 A2985 RMK A01 T02500196  RH  072%=      5-min Rain = 0
KOD1 270214Z 13013KT 25/20 A2986 RMK A01 T02500196  RH  072%=      5-min Rain = 0
KOD1 270215Z 13012KT 25/20 A2985 RMK A01 T02500197  RH  072%=      5-min Rain = 0
KOD1 270216Z 13013KT 25/20 A2986 RMK A01 T02500196  RH  072%=      5-min Rain = 0
KOD1 270217Z 13012KT 25/20 A2985 RMK A01 T02500197  RH  072%=      5-min Rain = 0
KOD1 270218Z 13011KT 25/20 A2985 RMK A01 T02490197  RH  073%=      5-min Rain = 0
KOD1 270219Z 13011KT 25/20 A2985 RMK A01 T02490196  RH  073%=      5-min Rain = 0
KOD1 270220Z 13011KT 25/20 A2985 RMK A01 T02490197  RH  073%=      5-min Rain = 0
KOD1 270221Z 13012KT 25/20 A2985 RMK A01 T02480197  RH  073%=      5-min Rain = 0
KOD1 270222Z 13013KT 25/20 A2984 RMK A01 T02480197  RH  073%=      5-min Rain = 0
KOD1 270223Z 12011KT 25/20 A2984 RMK A01 T02480196  RH  073%=      5-min Rain = 0
KOD1 270224Z 12013KT 25/20 A2984 RMK A01 T02480196  RH  073%=      5-min Rain = 0
KOD1 270225Z 12013KT 25/20 A2984 RMK A01 T02480196  RH  073%=      5-min Rain = 0
KOD1 270226Z 12012KT 25/20 A2983 RMK A01 T02480196  RH  073%=      5-min Rain = 0
KOD1 270227Z 12012KT 25/20 A2983 RMK A01 T02480196  RH  073%=      5-min Rain = 0
KOD1 270228Z 12013KT 25/20 A2983 RMK A01 T02470195  RH  073%=      5-min Rain = 0
KOD1 270229Z 12014KT 25/20 A2983 RMK A01 T02470196  RH  073%=      5-min Rain = 0
KOD1 270230Z 12014KT 25/20 A2983 RMK A01 T02480195  RH  073%=      5-min Rain = 0
KOD1 270231Z 12014KT 25/20 A2983 RMK A01 T02480195  RH  072%=      5-min Rain = 0
KOD1 270232Z 12015KT 25/20 A2983 RMK A01 T02480195  RH  072%=      5-min Rain = 0
KOD1 270233Z 12013KT 25/20 A2983 RMK A01 T02480195  RH  072%=      5-min Rain = 0
KOD1 270234Z 12014KT 25/20 A2983 RMK A01 T02470195  RH  073%=      5-min Rain = 0
KOD1 270235Z 12014KT 25/20 A2983 RMK A01 T02480195  RH  073%=      5-min Rain = 0
KOD1 270236Z 12015KT 25/20 A2982 RMK A01 T02480195  RH  072%=      5-min Rain = 0
KOD1 270237Z 12013KT 25/20 A2982 RMK A01 T02480195  RH  073%=      5-min Rain = 0
KOD1 270238Z 12015KT 25/20 A2982 RMK A01 T02470195  RH  073%=      5-min Rain = 0
KOD1 270239Z 12014KT 25/20 A2982 RMK A01 T02470195  RH  073%=      5-min Rain = 0
KOD1 270240Z 12013KT 25/20 A2982 RMK A01 T02470195  RH  073%=      5-min Rain = 0
KOD1 270241Z 12014KT 25/20 A2982 RMK A01 T02470195  RH  073%=      5-min Rain = 0
KOD1 270242Z 12013KT 25/20 A2983 RMK A01 T02470195  RH  072%=      5-min Rain = 0
KOD1 270243Z 12013KT 25/20 A2983 RMK A01 T02470195  RH  073%=      5-min Rain = 0
KOD1 270244Z 13014KT 25/20 A2983 RMK A01 T02470195  RH  073%=      5-min Rain = 0
KOD1 270245Z 13012KT 25/20 A2983 RMK A01 T02470195  RH  072%=      5-min Rain = 0
KOD1 270246Z 13012KT 25/20 A2983 RMK A01 T02480195  RH  072%=      5-min Rain = 0
KOD1 270247Z 13012KT 25/20 A2983 RMK A01 T02480195  RH  072%=      5-min Rain = 0
KOD1 270248Z 13011KT 25/20 A2983 RMK A01 T02470195  RH  073%=      5-min Rain = 0
KOD1 270249Z 13013G18KT 25/20 A2983 RMK A01 T02470195  RH  073%=      5-min Rain = 0
KOD1 270250Z 12013KT 25/20 A2983 RMK A01 T02480195  RH  072%=      5-min Rain = 0
KOD1 270251Z 13010KT 25/20 A2983 RMK A01 T02480195  RH  072%=      5-min Rain = 0
KOD1 270252Z 13010KT 25/20 A2983 RMK A01 T02470196  RH  073%=      5-min Rain = 0
KOD1 270253Z 13011KT 25/20 A2983 RMK A01 T02470195  RH  073%=      5-min Rain = 0
KOD1 270254Z 13013KT 25/20 A2983 RMK A01 T02470195  RH  073%=      5-min Rain = 0
KOD1 270255Z 13012KT 25/20 A2983 RMK A01 T02470195  RH  073%=      5-min Rain = 0
KOD1 270256Z 13013KT 25/20 A2983 RMK A01 T02470195  RH  073%=      5-min Rain = 0
KOD1 270257Z 13011KT 25/20 A2984 RMK A01 T02470195  RH  073%=      5-min Rain = 0
KOD1 270258Z 13012KT 25/19 A2984 RMK A01 T02470194  RH  073%=      5-min Rain = 0
KOD1 270259Z 13012KT 25/20 A2984 RMK A01 T02470195  RH  073%=      5-min Rain = 0
KOD1 270300Z 13012G17KT 25/20 A2984 RMK A01 T02470195  RH  073%=      5-min Rain = 0
KOD1 270301Z 14011KT 25/20 A2984 RMK A01 T02470195  RH  073%=      5-min Rain = 0
KOD1 270302Z 14010KT 25/20 A2984 RMK A01 T02470195  RH  073%=      5-min Rain = 0
KOD1 270303Z 14012KT 25/20 A2985 RMK A01 T02460195  RH  073%=      5-min Rain = 0
KOD1 270304Z 14012KT 25/19 A2985 RMK A01 T02460194  RH  073%=      5-min Rain = 0
KOD1 270305Z 14010KT 25/20 A2985 RMK A01 T02460195  RH  073%=      5-min Rain = 0
KOD1 270306Z 14012KT 25/20 A2985 RMK A01 T02460195  RH  073%=      5-min Rain = 0
KOD1 270307Z 14014KT 25/19 A2985 RMK A01 T02460194  RH  073%=      5-min Rain = 0
KOD1 270308Z 14013G18KT 25/20 A2985 RMK A01 T02460195  RH  073%=      5-min Rain = 0
KOD1 270309Z 14011KT 25/20 A2985 RMK A01 T02460195  RH  073%=      5-min Rain = 0
KOD1 270310Z 14012KT 25/20 A2985 RMK A01 T02460195  RH  073%=      5-min Rain = 0
KOD1 270311Z 14010KT 25/20 A2986 RMK A01 T02470195  RH  073%=      5-min Rain = 0
KOD1 270312Z 14009KT 25/20 A2986 RMK A01 T02470195  RH  073%=      5-min Rain = 0
KOD1 270313Z 14011KT 25/20 A2986 RMK A01 T02460195  RH  073%=      5-min Rain = 0
KOD1 270314Z 14012KT 25/20 A2986 RMK A01 T02460195  RH  073%=      5-min Rain = 0
KOD1 270315Z 14012KT 25/19 A2986 RMK A01 T02470194  RH  072%=      5-min Rain = 0
KOD1 270316Z 14014KT 25/19 A2986 RMK A01 T02470194  RH  072%=      5-min Rain = 0
KOD1 270317Z 14014KT 25/19 A2986 RMK A01 T02480193  RH  071%=      5-min Rain = 0
KOD1 270318Z 14013KT 25/19 A2986 RMK A01 T02490194  RH  071%=      5-min Rain = 0
KOD1 270319Z 14013KT 25/19 A2986 RMK A01 T02490194  RH  071%=      5-min Rain = 0
KOD1 270320Z 14014KT 25/19 A2987 RMK A01 T02490194  RH  071%=      5-min Rain = 0
KOD1 270321Z 14012KT 25/19 A2987 RMK A01 T02490194  RH  071%=      5-min Rain = 0
KOD1 270322Z 14012KT 25/19 A2987 RMK A01 T02490194  RH  071%=      5-min Rain = 0
KOD1 270323Z 14012KT 25/19 A2987 RMK A01 T02490194  RH  071%=      5-min Rain = 0
KOD1 270324Z 15011KT 25/19 A2988 RMK A01 T02480194  RH  072%=      5-min Rain = 0
KOD1 270325Z 14009KT 25/19 A2988 RMK A01 T02480194  RH  072%=      5-min Rain = 0
KOD1 270326Z 15011KT 25/19 A2988 RMK A01 T02470194  RH  072%=      5-min Rain = 0
KOD1 270327Z 14012KT 25/19 A2988 RMK A01 T02470194  RH  072%=      5-min Rain = 0
KOD1 270328Z 15008KT 25/19 A2988 RMK A01 T02480194  RH  072%=      5-min Rain = 0
KOD1 270329Z 14009KT 25/20 A2988 RMK A01 T02470195  RH  073%=      5-min Rain = 0
KOD1 270330Z 14008KT 25/19 A2988 RMK A01 T02470194  RH  073%=      5-min Rain = 0
KOD1 270331Z 14010KT 25/19 A2988 RMK A01 T02460194  RH  073%=      5-min Rain = 0
KOD1 270332Z 14009KT 25/19 A2988 RMK A01 T02450194  RH  073%=      5-min Rain = 0
KOD1 270333Z 14010KT 25/19 A2988 RMK A01 T02450194  RH  073%=      5-min Rain = 0
KOD1 270334Z 14009KT 25/19 A2988 RMK A01 T02450194  RH  073%=      5-min Rain = 0
KOD1 270335Z 14010KT 25/19 A2989 RMK A01 T02450194  RH  073%=      5-min Rain = 0
KOD1 270336Z 14009KT 25/19 A2989 RMK A01 T02460193  RH  072%=      5-min Rain = 0
KOD1 270337Z 14009KT 25/19 A2989 RMK A01 T02460194  RH  073%=      5-min Rain = 0
KOD1 270338Z 14008KT 25/19 A2989 RMK A01 T02450194  RH  073%=      5-min Rain = 0
KOD1 270339Z 14009G14KT 25/19 A2989 RMK A01 T02450193  RH  073%=      5-min Rain = 0
KOD1 270340Z 14010G15KT 25/19 A2989 RMK A01 T02460193  RH  072%=      5-min Rain = 0
KOD1 270341Z 14008KT 25/19 A2989 RMK A01 T02460193  RH  073%=      5-min Rain = 0
KOD1 270342Z 14008KT 25/19 A2989 RMK A01 T02450193  RH  073%=      5-min Rain = 0
KOD1 270343Z 13007KT 25/19 A299 RMK A01 T02450193  RH  073%=      5-min Rain = 0
KOD1 270344Z 14007KT 25/19 A299 RMK A01 T02450193  RH  073%=      5-min Rain = 0
KOD1 270345Z 14007KT 25/19 A299 RMK A01 T02450193  RH  073%=      5-min Rain = 0
KOD1 270346Z 14007KT 24/19 A299 RMK A01 T02440193  RH  073%=      5-min Rain = 0
KOD1 270347Z 13007KT 24/19 A299 RMK A01 T02440193  RH  073%=      5-min Rain = 0
KOD1 270348Z 13008KT 24/19 A2989 RMK A01 T02440193  RH  073%=      5-min Rain = 0
KOD1 270349Z 13008KT 24/19 A2989 RMK A01 T02440193  RH  074%=      5-min Rain = 0
KOD1 270350Z 14008KT 24/19 A2989 RMK A01 T02430193  RH  073%=      5-min Rain = 0
KOD1 270351Z 14009KT 24/19 A2989 RMK A01 T02430193  RH  073%=      5-min Rain = 0
KOD1 270352Z 13009KT 24/19 A2989 RMK A01 T02430193  RH  073%=      5-min Rain = 0
KOD1 270353Z 13009KT 24/19 A2989 RMK A01 T02430193  RH  073%=      5-min Rain = 0
KOD1 270354Z 14009KT 24/19 A2989 RMK A01 T02430193  RH  073%=      5-min Rain = 0
KOD1 270355Z 14009KT 24/19 A2989 RMK A01 T02430193  RH  073%=      5-min Rain = 0
KOD1 270356Z 14009KT 24/19 A2989 RMK A01 T02430193  RH  073%=      5-min Rain = 0
KOD1 270357Z 14009KT 24/19 A2989 RMK A01 T02420193  RH  074%=      5-min Rain = 0
KOD1 270358Z 14010KT 24/19 A2989 RMK A01 T02420193  RH  074%=      5-min Rain = 0
KOD1 270359Z 14010KT 24/19 A2989 RMK A01 T02420192  RH  074%=      5-min Rain = 0
KOD1 270400Z 13009KT 24/19 A2989 RMK A01 T02430192  RH  073%=      5-min Rain = 0
KOD1 270401Z 14009KT 24/19 A2989 RMK A01 T02430192  RH  073%=      5-min Rain = 0
KOD1 270402Z 14011KT 24/19 A2989 RMK A01 T02430192  RH  073%=      5-min Rain = 0
KOD1 270403Z 14010KT 24/19 A2989 RMK A01 T02430192  RH  073%=      5-min Rain = 0
KOD1 270404Z 14009KT 24/19 A2989 RMK A01 T02430192  RH  073%=      5-min Rain = 0
KOD1 270405Z 14010KT 24/19 A2989 RMK A01 T02420191  RH  073%=      5-min Rain = 0
KOD1 270406Z 14010KT 24/19 A2989 RMK A01 T02430192  RH  073%=      5-min Rain = 0
KOD1 270407Z 13010KT 24/19 A2989 RMK A01 T02430192  RH  073%=      5-min Rain = 0
KOD1 270408Z 13008KT 24/19 A2989 RMK A01 T02420192  RH  073%=      5-min Rain = 0
KOD1 270409Z 14009KT 24/19 A2989 RMK A01 T02420192  RH  074%=      5-min Rain = 0
KOD1 270410Z 14009KT 24/19 A2989 RMK A01 T02420191  RH  073%=      5-min Rain = 0
KOD1 270411Z 14009KT 24/19 A2989 RMK A01 T02420191  RH  073%=      5-min Rain = 0
KOD1 270412Z 14009KT 24/19 A2989 RMK A01 T02410192  RH  074%=      5-min Rain = 0
KOD1 270413Z 14010KT 24/19 A2989 RMK A01 T02420191  RH  073%=      5-min Rain = 0
KOD1 270414Z 14009KT 24/19 A2989 RMK A01 T02420191  RH  073%=      5-min Rain = 0
KOD1 270415Z 14009KT 24/19 A2989 RMK A01 T02420191  RH  073%=      5-min Rain = 0
KOD1 270416Z 13008KT 24/19 A2989 RMK A01 T02410191  RH  073%=      5-min Rain = 0
KOD1 270417Z 14008KT 24/19 A2989 RMK A01 T02410192  RH  074%=      5-min Rain = 0
KOD1 270418Z 14008KT 24/19 A2989 RMK A01 T02400192  RH  074%=      5-min Rain = 0
KOD1 270419Z 14010KT 24/19 A2989 RMK A01 T02400192  RH  074%=      5-min Rain = 0
KOD1 270420Z 14010KT 24/19 A2989 RMK A01 T02420191  RH  073%=      5-min Rain = 0
KOD1 270421Z 14010KT 24/19 A2989 RMK A01 T02420191  RH  073%=      5-min Rain = 0
KOD1 270422Z 14009KT 24/19 A2989 RMK A01 T02420191  RH  074%=      5-min Rain = 0
KOD1 270423Z 14009KT 24/19 A2989 RMK A01 T02410192  RH  074%=      5-min Rain = 0
KOD1 270424Z 14009KT 24/19 A2989 RMK A01 T02400192  RH  074%=      5-min Rain = 0
KOD1 270425Z 14011KT 24/19 A2989 RMK A01 T02410191  RH  074%=      5-min Rain = 0
KOD1 270426Z 14011KT 24/19 A2989 RMK A01 T02420191  RH  073%=      5-min Rain = 0
KOD1 270427Z 14011KT 24/19 A2989 RMK A01 T02420191  RH  073%=      5-min Rain = 0
KOD1 270428Z 14010KT 24/19 A2989 RMK A01 T02420191  RH  073%=      5-min Rain = 0
KOD1 270429Z 14011KT 24/19 A2989 RMK A01 T02420191  RH  073%=      5-min Rain = 0
KOD1 270430Z 14011KT 24/19 A2989 RMK A01 T02420191  RH  074%=      5-min Rain = 0
KOD1 270431Z 14011KT 24/19 A2989 RMK A01 T02420191  RH  074%=      5-min Rain = 0
KOD1 270432Z 13012KT 24/19 A2989 RMK A01 T02410191  RH  073%=      5-min Rain = 0
KOD1 270433Z 14011KT 24/19 A2989 RMK A01 T02420191  RH  073%=      5-min Rain = 0
KOD1 270434Z 13011KT 24/19 A2989 RMK A01 T02410191  RH  073%=      5-min Rain = 0
KOD1 270435Z 13010KT 24/19 A2989 RMK A01 T02420191  RH  073%=      5-min Rain = 0
KOD1 270436Z 13012KT 24/19 A2989 RMK A01 T02410191  RH  074%=      5-min Rain = 0
KOD1 270437Z 14010G15KT 24/19 A2989 RMK A01 T02410191  RH  073%=      5-min Rain = 0
KOD1 270438Z 13012KT 24/19 A2989 RMK A01 T02410191  RH  073%=      5-min Rain = 0
KOD1 270439Z 13011KT 24/19 A2989 RMK A01 T02410191  RH  073%=      5-min Rain = 0
KOD1 270440Z 13010KT 24/19 A2989 RMK A01 T02410191  RH  074%=      5-min Rain = 0
KOD1 270441Z 13011KT 24/19 A2989 RMK A01 T02400191  RH  074%=      5-min Rain = 0
KOD1 270442Z 13010KT 24/19 A2989 RMK A01 T02400192  RH  074%=      5-min Rain = 0
KOD1 270443Z 13011KT 24/19 A2989 RMK A01 T02400192  RH  074%=      5-min Rain = 0
KOD1 270444Z 13010KT 24/19 A2988 RMK A01 T02400191  RH  074%=      5-min Rain = 0
KOD1 270445Z 13010KT 24/19 A2988 RMK A01 T02400191  RH  074%=      5-min Rain = 0
KOD1 270446Z 13010KT 24/19 A2988 RMK A01 T02390191  RH  075%=      5-min Rain = 0
KOD1 270447Z 13010KT 24/19 A2988 RMK A01 T02380191  RH  075%=      5-min Rain = 0
KOD1 270448Z 13009KT 24/19 A2988 RMK A01 T02380191  RH  075%=      5-min Rain = 0
KOD1 270449Z 13009KT 24/19 A2988 RMK A01 T02380191  RH  075%=      5-min Rain = 0
KOD1 270450Z 13010KT 24/19 A2988 RMK A01 T02380191  RH  075%=      5-min Rain = 0
KOD1 270451Z 12010KT 24/19 A2988 RMK A01 T02380191  RH  075%=      5-min Rain = 0
KOD1 270452Z 13010KT 24/19 A2988 RMK A01 T02380191  RH  075%=      5-min Rain = 0
KOD1 270453Z 13009KT 24/19 A2988 RMK A01 T02370191  RH  075%=      5-min Rain = 0
KOD1 270454Z 13011KT 24/19 A2988 RMK A01 T02360191  RH  076%=      5-min Rain = 0
KOD1 270455Z 13011KT 24/19 A2988 RMK A01 T02360191  RH  076%=      5-min Rain = 0
KOD1 270456Z 13011KT 24/19 A2988 RMK A01 T02360191  RH  076%=      5-min Rain = 0
KOD1 270457Z 13010KT 24/19 A2988 RMK A01 T02360191  RH  076%=      5-min Rain = 0
KOD1 270458Z 13010KT 24/19 A2988 RMK A01 T02360191  RH  076%=      5-min Rain = 0
KOD1 270459Z 13010KT 24/19 A2988 RMK A01 T02360191  RH  076%=      5-min Rain = 0

Page generated in 0.0373 seconds.